GFSCGP_700_spd_000.txt.gz
Wind_Speed
15 17 21 18 18 18 16 15 9 12 18 21 27 30 28 29 32 31 29 31 31 30 30 32 31 31 32 31 32 33 32 33 34 34 36 38 38 39 40 41 42 43 43 45
15 22 15 12 18 19 20 19 17 13 21 22 28 33 32 30 33 27 24 27 31 31 34 35 32 29 30 31 33 30 31 30 33 33 34 35 36 38 40 43 45 45 45 46
22 11 12 21 22 23 24 22 17 16 15 21 26 35 25 18 27 30 24 24 28 30 33 34 31 24 26 28 28 27 28 29 30 31 33 33 35 38 40 42 43 45 47 47
20 21 21 22 24 23 22 18 18 20 16 12 8 12 23 14 24 21 20 20 19 23 28 30 27 20 21 22 24 22 25 27 31 33 31 33 36 37 39 41 43 45 46 47
16 18 23 26 25 19 22 17 18 17 16 18 25 16 20 6 16 17 20 19 14 19 22 21 25 23 21 21 20 22 24 29 31 31 32 35 35 38 40 42 44 45 46 47
27 19 21 23 18 20 20 19 19 19 16 12 25 25 29 18 18 11 17 16 19 18 22 21 21 23 22 21 23 23 25 30 31 31 33 35 37 39 40 42 43 44 46 47
30 33 33 26 27 27 30 20 5 6 6 8 14 24 35 7 13 12 22 26 23 22 21 20 20 21 23 24 25 27 30 32 30 32 33 35 38 39 40 42 43 44 46 46
19 17 33 36 42 35 36 33 16 6 7 12 13 10 16 17 15 18 28 29 26 22 19 19 18 21 26 27 30 30 32 30 30 31 33 35 37 39 41 42 43 44 45 44
20 32 27 38 26 28 25 31 33 28 32 17 24 29 27 24 36 27 21 24 25 14 14 15 20 22 25 29 33 31 33 31 30 30 32 35 36 38 40 41 43 43 43 41
36 34 26 33 31 27 34 13 16 21 5 8 14 23 19 19 20 24 23 24 18 15 18 19 21 23 26 29 30 33 32 29 30 31 34 35 36 38 39 41 41 41 40 39
41 35 17 32 39 40 36 41 23 24 25 4 10 13 23 27 16 18 18 20 19 18 21 26 25 24 27 28 30 32 29 29 31 33 35 35 36 38 38 39 39 39 38 34
35 24 35 45 41 31 43 43 49 26 18 30 36 37 27 20 26 30 28 25 26 22 23 30 30 30 29 27 29 28 28 30 32 34 34 34 36 37 38 37 37 37 34 32
32 31 36 34 26 33 36 40 39 46 36 39 26 30 24 26 23 31 29 25 23 27 36 34 32 30 28 27 26 27 29 31 32 33 34 34 35 36 35 34 36 35 31 31
37 36 35 36 43 30 34 40 46 45 41 51 45 50 43 33 27 28 28 32 36 34 34 30 30 26 28 27 27 29 29 31 31 32 32 33 34 35 32 33 35 31 30 32
31 44 50 51 44 35 37 38 40 52 60 47 52 50 53 43 43 45 37 33 29 33 39 36 28 26 29 26 28 30 31 31 31 32 33 33 34 34 31 33 33 30 32 34
28 29 41 45 50 51 50 51 43 41 44 54 51 61 48 37 27 29 25 23 28 35 45 37 29 28 26 27 28 30 31 31 31 32 32 33 33 32 31 33 34 32 33 35
53 44 37 38 44 47 46 56 53 48 41 42 47 65 48 48 44 43 45 45 45 43 42 36 28 27 26 28 29 30 31 31 31 31 31 32 31 31 32 34 35 34 35 35
52 58 45 36 42 35 48 52 52 46 53 53 55 63 57 56 49 42 35 36 40 33 28 28 31 26 27 27 29 30 31 31 30 30 30 30 30 31 32 34 36 36 35 34
35 42 34 27 35 36 30 46 36 45 47 41 49 45 39 44 45 49 42 38 32 28 30 29 26 26 27 28 29 29 29 29 28 29 29 29 29 31 33 35 36 35 35 34
20 27 30 39 9 10 45 44 33 40 45 38 36 42 39 33 43 44 30 28 27 30 25 25 26 25 26 27 28 28 28 27 26 27 28 28 29 31 34 34 34 33 34 34
29 25 28 30 16 25 27 33 39 30 34 26 17 13 19 25 35 31 24 24 18 17 21 21 20 23 27 27 27 27 25 25 26 26 27 28 29 32 33 34 32 33 34 36
29 24 23 17 10 19 32 9 2 11 19 29 23 26 21 19 24 29 25 22 17 16 16 16 18 23 26 27 26 25 24 24 25 26 27 27 30 32 32 32 30 32 34 36
30 18 22 19 22 30 21 26 18 15 24 17 12 20 18 16 12 15 21 26 19 19 18 16 19 24 26 26 25 25 23 23 24 26 26 28 30 31 31 31 31 32 34 36
37 33 37 36 47 46 44 43 47 47 28 27 27 22 19 16 16 17 19 22 24 22 23 21 24 25 26 25 25 24 23 23 25 25 25 28 30 31 31 32 31 31 34 35
45 42 44 46 51 42 31 27 30 40 36 31 28 28 24 19 14 16 18 21 25 27 28 26 29 26 26 25 25 24 22 23 24 24 25 27 30 31 32 32 31 31 33 34
45 46 46 49 40 40 52 41 21 25 29 24 29 36 33 26 20 20 22 26 26 30 30 28 31 29 27 25 24 23 22 23 23 24 26 28 30 31 31 33 33 31 30 30

GFSCGP_700_spd_003.txt.gz
Wind_Speed
19 22 26 23 21 19 11 12 15 13 11 23 24 31 27 26 29 29 29 30 29 29 24 26 27 27 29 29 31 32 31 30 30 31 31 31 32 31 32 31 33 34 35 37
22 27 20 18 15 17 18 24 27 25 22 19 24 38 32 31 34 28 27 28 29 28 30 31 30 30 30 29 31 34 32 30 30 30 29 29 29 31 31 32 33 34 36 37
28 19 10 19 20 21 23 26 27 25 20 18 22 38 36 33 27 27 27 26 29 29 30 30 28 26 28 29 30 31 30 30 27 27 26 28 30 29 30 32 34 36 38 38
24 26 25 16 24 23 30 28 27 24 25 22 23 28 23 15 21 23 23 23 18 21 24 25 24 22 20 23 28 29 28 23 23 23 26 28 29 29 30 32 35 37 37 37
23 16 21 30 31 25 30 25 24 23 29 29 29 15 25 13 24 26 24 17 17 14 16 21 23 17 19 24 27 26 21 23 23 24 26 28 28 29 30 32 34 35 36 37
33 27 23 25 24 28 25 21 22 22 21 14 25 19 56 34 34 26 21 24 19 13 14 20 22 23 20 22 25 22 21 22 25 27 29 28 28 29 31 33 34 35 36 37
35 37 37 34 28 25 26 26 6 6 6 12 22 22 49 25 17 18 18 15 19 18 26 22 23 21 19 21 22 23 23 24 27 27 29 28 29 30 32 33 34 35 36 38
18 23 39 40 44 41 40 38 20 8 6 12 27 17 33 31 25 28 27 28 23 27 28 25 23 20 20 20 22 24 25 27 28 30 28 27 28 30 33 33 33 34 37 38
17 31 35 32 30 34 39 45 45 35 28 11 23 35 38 20 22 23 28 34 27 21 25 21 19 18 19 23 23 24 26 28 29 30 27 27 27 29 32 34 34 36 37 38
40 35 35 32 33 37 40 30 20 29 6 7 18 27 24 23 32 29 32 27 24 23 23 18 20 19 21 22 23 25 26 27 28 26 26 26 27 29 31 32 34 36 37 38
40 43 47 32 33 44 40 42 23 25 29 7 9 12 26 30 33 32 26 25 25 27 27 21 22 24 25 26 25 25 27 26 26 25 26 26 28 29 31 31 33 35 35 37
34 39 49 50 50 38 43 48 55 28 10 31 37 39 38 27 22 24 24 21 25 22 28 26 23 26 32 31 28 27 27 25 25 25 26 27 28 30 30 31 33 34 35 37
34 25 29 38 38 38 45 46 47 51 41 38 29 40 36 36 38 36 37 38 38 33 32 30 24 34 34 28 27 27 26 25 26 26 28 28 28 30 30 32 32 33 35 37
37 36 36 33 38 37 41 47 49 51 40 55 49 60 49 40 37 32 30 33 30 30 29 30 37 34 29 30 26 27 27 26 27 28 28 28 29 30 30 32 31 33 35 36
34 29 34 51 41 26 25 43 49 55 63 50 62 54 65 56 52 49 40 33 35 39 42 36 35 34 32 31 27 27 26 27 28 28 28 28 29 30 30 31 31 32 34 36
43 35 47 61 52 51 44 43 33 44 50 62 67 67 49 45 42 40 40 38 43 45 38 32 33 36 37 32 29 27 26 27 28 28 27 28 29 29 29 30 30 32 35 36
51 34 28 27 39 45 44 40 50 46 49 50 53 63 47 47 46 47 44 37 37 36 34 36 39 42 40 31 28 25 27 28 28 27 28 28 29 29 29 29 30 32 35 35
55 53 28 27 28 14 40 38 28 36 52 50 60 63 54 50 47 50 49 45 48 47 44 42 34 32 26 25 25 26 28 28 28 27 28 28 29 28 29 28 29 32 35 34
25 29 20 15 25 32 41 36 32 34 42 36 51 58 55 48 43 48 48 48 44 41 38 37 36 26 24 25 24 27 28 27 26 26 27 28 27 27 28 27 28 32 34 33
23 27 29 29 17 5 31 29 28 42 42 36 13 15 20 30 36 53 43 39 39 43 43 37 32 25 23 23 23 25 26 26 25 26 27 27 26 26 26 26 29 31 32 33
29 22 30 34 29 22 40 38 36 22 14 14 8 9 9 20 33 41 40 36 31 32 31 30 23 20 19 20 22 24 25 24 24 27 26 25 26 26 25 26 28 30 31 32
35 20 23 17 18 15 9 21 26 27 43 52 36 28 12 6 13 16 22 25 24 22 18 15 16 17 16 17 20 22 22 23 25 25 23 24 25 23 24 27 27 28 30 31
22 28 30 29 35 39 46 46 35 42 51 48 55 41 20 9 2 10 12 16 19 22 10 7 12 14 13 12 16 19 21 24 24 22 22 24 23 23 26 28 27 28 28 30
38 29 30 34 46 45 50 49 45 33 33 42 28 41 24 15 1 10 16 21 26 16 9 10 16 15 15 15 17 20 22 22 21 21 22 22 22 25 26 27 27 28 28 29
48 45 46 43 47 46 42 40 38 39 41 37 22 28 30 22 12 11 19 24 17 18 15 16 19 17 17 20 21 22 22 21 20 19 21 22 24 26 27 28 26 27 27 27
46 45 44 47 40 40 45 40 35 32 30 29 32 33 37 31 26 12 17 20 15 16 19 20 20 25 22 22 23 24 21 20 19 19 21 23 25 27 28 27 26 25 25 23

GFSCGP_700_spd_006.txt.gz
Wind_Speed
23 27 32 29 25 25 26 23 23 22 17 27 29 31 30 22 28 30 30 31 32 33 27 28 27 32 33 30 28 28 29 30 30 29 29 30 30 29 27 26 27 27 29 30
27 33 25 24 24 25 26 27 31 31 28 30 31 40 38 33 36 35 31 31 32 32 34 33 34 34 32 31 31 32 32 32 30 30 30 30 29 28 26 27 27 27 28 30
32 26 21 26 27 29 31 32 31 30 25 31 33 47 44 44 41 36 35 32 33 36 36 34 36 35 32 32 33 32 34 33 31 30 29 29 27 26 27 28 27 27 29 31
26 28 31 23 25 26 37 30 26 27 30 30 20 31 37 35 39 34 26 25 25 24 24 32 35 33 29 27 30 32 33 31 29 26 26 25 25 26 27 27 28 29 30 32
24 19 22 32 37 29 35 28 27 28 32 36 36 17 26 18 25 25 25 26 27 20 23 24 24 21 21 24 27 28 30 30 24 23 23 23 24 25 26 27 29 30 31 32
36 33 25 28 26 26 32 30 29 32 31 16 38 23 59 42 40 32 15 21 28 30 25 22 18 20 20 23 28 29 28 24 22 21 21 23 24 25 26 28 29 30 31 31
31 33 35 37 32 29 31 30 9 7 6 13 21 23 51 28 22 29 33 26 19 20 27 20 20 21 17 22 24 26 25 21 22 22 22 23 23 25 27 28 29 30 31 31
32 32 26 29 38 42 40 39 24 8 7 15 22 21 43 42 34 27 20 21 22 18 20 24 29 28 23 21 24 26 21 21 24 25 25 25 25 26 26 28 29 30 30 31
22 33 31 26 25 31 42 40 46 41 26 8 21 34 41 40 34 33 32 25 30 29 27 30 23 25 19 22 21 19 22 24 26 26 27 26 26 25 26 29 30 31 31 31
34 38 28 21 30 36 41 35 23 26 7 11 19 24 32 23 23 27 30 31 32 31 32 28 26 23 22 19 17 20 23 24 26 28 27 27 26 25 27 30 31 31 31 31
28 26 51 41 35 36 35 45 36 30 32 13 16 23 42 34 23 21 22 27 29 30 28 29 31 27 24 23 20 18 22 25 27 28 27 27 25 25 28 30 31 31 30 32
32 25 35 38 32 34 40 44 45 37 31 22 36 49 50 40 33 28 30 27 27 29 29 29 32 31 28 27 25 26 25 26 26 26 27 26 26 26 28 30 31 31 30 32
26 24 25 34 40 35 24 29 40 48 49 41 30 48 49 46 42 32 29 26 25 28 30 29 33 37 33 28 27 28 23 24 25 26 27 27 26 27 29 30 31 30 30 32
35 21 20 22 16 20 34 35 31 26 28 41 48 63 67 58 49 44 43 43 44 41 39 37 38 36 33 28 30 29 26 25 25 27 28 27 27 27 29 30 30 29 31 31
30 33 36 43 51 49 47 45 52 50 49 29 51 49 59 62 59 52 50 48 50 43 39 36 34 32 32 34 33 30 25 25 26 27 28 27 27 28 29 29 29 29 30 31
46 48 38 38 48 43 43 36 45 48 52 53 41 48 45 56 54 55 55 48 38 36 39 37 39 39 39 39 34 31 31 28 27 28 28 28 28 28 28 29 28 28 29 31
45 46 42 38 46 35 31 34 31 36 37 34 34 31 40 36 36 43 45 43 42 40 38 39 42 43 41 38 33 32 29 26 27 28 28 28 28 28 28 28 27 27 30 32
35 39 36 33 36 16 32 22 25 39 30 21 22 34 49 43 43 38 42 45 49 44 40 40 43 35 33 35 33 30 31 28 28 28 28 28 27 27 28 26 26 29 30 33
15 15 20 10 19 27 40 26 13 16 29 33 38 34 21 30 47 51 33 44 48 48 43 42 40 39 34 32 33 32 31 29 28 26 26 26 27 28 26 25 27 28 31 33
24 26 23 29 11 10 47 28 31 31 27 17 19 31 43 47 43 39 39 48 49 47 37 40 40 39 37 32 34 34 31 28 25 23 25 26 27 25 25 25 26 28 32 34
30 18 15 25 23 18 31 20 18 13 25 38 34 44 49 43 42 32 24 36 51 49 47 31 32 35 38 36 33 31 27 23 21 25 26 26 25 25 24 25 26 29 31 32
25 25 31 22 13 14 17 32 34 37 41 42 33 38 42 33 39 29 26 12 33 40 29 27 31 33 32 31 29 25 21 20 23 25 25 25 24 23 24 25 26 29 30 32
25 30 33 32 38 37 40 42 41 33 31 31 26 36 43 33 28 27 30 8 4 12 18 24 27 27 25 24 20 17 17 19 22 23 22 22 22 23 25 25 25 28 29 31
42 33 30 35 49 49 50 41 34 34 32 32 31 26 33 36 30 34 29 11 7 11 16 19 21 20 18 16 15 15 12 14 18 19 21 22 22 24 25 24 25 27 28 30
48 44 48 45 44 39 37 36 38 37 31 28 26 21 25 31 30 35 23 18 5 12 15 15 13 13 12 12 13 13 12 12 16 19 22 22 23 23 23 23 24 27 28 30
41 40 39 43 33 33 43 38 34 35 32 26 26 25 26 30 34 34 30 16 10 14 16 13 14 14 13 15 15 15 15 14 17 18 20 20 21 21 22 23 24 27 29 28

GFSCGP_700_spd_009.txt.gz
Wind_Speed
23 27 33 32 31 31 32 35 34 32 29 32 35 39 38 33 34 33 34 31 32 32 24 30 32 31 33 36 37 36 34 33 32 31 30 30 30 31 29 27 27 27 28 26
27 32 27 29 30 32 35 36 39 38 33 34 38 49 46 42 45 39 37 38 38 35 32 33 34 37 38 38 36 35 35 33 32 31 31 33 32 31 29 28 28 28 28 27
30 27 23 24 29 36 38 40 40 42 35 37 40 57 51 47 47 44 43 41 40 37 38 37 39 41 40 42 40 35 33 33 33 33 34 34 32 31 29 28 28 28 28 28
23 25 30 33 36 29 43 36 38 39 33 36 23 33 39 38 45 43 42 39 37 35 32 27 26 35 44 42 38 35 33 32 34 35 35 32 30 29 28 28 28 29 29 29
28 26 24 26 28 31 40 32 35 30 31 35 40 18 53 25 33 40 41 42 34 27 26 30 27 29 31 39 36 32 31 33 34 33 30 29 28 27 27 27 28 29 29 29
32 30 33 33 32 29 31 29 31 35 32 17 41 22 64 49 44 35 19 17 17 20 27 35 35 30 33 32 32 31 33 32 31 29 27 26 25 26 26 27 29 30 29 29
36 37 37 31 31 33 34 25 10 8 5 16 21 22 51 22 22 34 34 31 30 29 29 33 30 28 26 21 24 28 32 29 28 26 26 24 24 25 26 28 29 29 29 30
32 34 22 17 22 24 30 37 26 6 7 18 26 21 44 44 39 33 36 43 31 24 24 18 20 21 21 22 23 28 29 27 25 24 24 25 26 25 26 29 29 28 29 31
21 21 10 14 17 22 32 37 40 44 48 16 36 49 55 53 52 46 37 30 27 27 26 24 19 23 24 21 23 25 25 23 23 24 27 27 27 26 28 29 28 29 29 31
21 41 25 18 21 23 28 33 25 17 9 21 24 27 34 30 25 33 44 31 29 27 29 32 33 30 29 26 25 25 24 21 22 25 26 27 27 28 29 28 28 29 30 31
36 35 50 38 35 34 32 34 36 37 33 17 19 26 36 34 23 17 14 11 14 17 24 32 37 38 37 30 27 27 24 21 19 22 26 27 28 29 29 28 28 29 31 32
28 37 46 50 49 45 45 44 35 18 25 31 36 47 49 47 44 38 35 35 36 40 33 29 30 36 34 32 32 33 27 22 20 23 27 28 29 30 28 27 28 30 31 32
34 27 27 39 33 21 23 26 20 40 25 27 21 33 37 35 36 34 30 28 31 30 31 34 36 29 27 31 34 36 33 24 21 22 26 28 28 29 27 27 29 31 32 31
34 36 31 32 38 45 50 60 58 38 30 33 38 45 48 44 42 45 42 41 38 42 45 43 40 36 33 35 37 39 31 25 23 23 27 28 28 28 28 29 30 31 31 31
22 34 37 45 49 48 48 45 43 52 45 35 56 53 56 51 49 59 46 38 36 37 38 42 43 43 41 38 42 39 29 28 25 24 26 28 29 30 29 29 30 31 30 30
37 44 43 47 52 52 48 47 47 46 55 51 49 47 35 38 44 48 46 44 42 43 42 40 32 35 39 37 40 35 31 29 29 28 28 30 32 31 30 30 31 30 29 30
41 44 34 37 44 42 31 49 48 43 41 43 37 31 34 28 37 41 43 37 37 38 46 39 31 28 30 29 30 35 35 34 30 31 31 32 33 31 29 30 30 28 29 30
28 28 29 26 33 15 28 21 31 27 27 31 30 27 23 32 35 33 37 39 46 43 42 40 35 30 30 35 35 39 40 36 32 33 33 33 32 30 29 29 28 28 29 30
15 20 20 20 26 36 38 14 28 32 32 29 11 35 34 41 35 29 29 29 37 43 46 50 42 34 33 37 36 36 37 38 35 36 34 33 31 29 28 28 28 29 29 30
8 21 20 30 18 11 34 43 31 27 25 16 40 39 38 33 40 42 38 29 33 37 51 55 54 47 35 35 35 34 38 39 36 34 33 30 30 29 27 27 27 28 29 29
30 30 28 25 22 27 36 25 26 19 31 41 35 32 33 35 35 42 37 37 30 37 45 55 49 46 38 35 33 33 39 38 33 33 31 31 31 28 26 27 26 27 29 29
35 24 34 18 10 17 20 32 38 43 47 42 38 31 37 35 37 35 36 41 41 40 39 34 53 41 31 32 33 35 37 36 34 31 31 31 28 26 25 25 25 27 29 28
25 27 33 31 38 47 41 40 42 31 36 34 38 35 35 38 38 35 35 38 42 36 20 17 30 38 33 32 31 32 34 34 32 31 29 27 24 25 24 23 25 27 28 29
37 31 32 41 47 41 39 38 33 30 34 37 37 35 36 38 38 36 37 38 37 35 17 4 13 17 19 27 32 32 32 31 28 26 25 23 24 23 23 23 25 26 27 29
48 42 40 43 40 38 34 35 32 33 33 36 32 27 31 32 33 32 37 35 35 27 30 9 13 15 18 26 31 31 28 25 23 21 21 22 22 22 23 24 25 24 26 28
40 39 38 43 37 34 39 37 35 36 36 35 34 35 29 28 27 28 31 30 32 25 21 20 18 22 27 23 23 30 30 26 22 20 21 24 24 22 22 24 22 23 26 27

GFSCGP_700_spd_012.txt.gz
Wind_Speed
24 25 30 28 28 30 34 37 40 38 35 41 43 48 45 39 41 39 38 37 35 36 30 31 29 29 30 33 36 39 38 36 35 35 34 32 30 30 31 31 30 28 27 25
23 27 24 27 28 31 32 37 41 41 37 43 46 57 52 47 49 46 42 42 40 38 35 36 35 35 36 35 35 39 39 37 36 35 34 34 32 34 33 32 30 30 29 27
27 25 29 28 22 23 30 34 39 45 42 45 47 67 56 53 49 48 44 39 38 39 38 36 38 38 40 41 38 40 39 36 34 33 36 35 35 35 34 31 32 32 29 27
20 20 22 23 27 27 38 32 35 35 32 32 35 36 40 41 49 45 39 30 29 30 28 28 33 37 38 40 41 44 41 39 37 35 36 37 35 35 33 33 34 31 29 28
24 27 28 30 30 28 39 33 27 33 36 38 38 17 65 14 41 48 50 35 23 21 26 31 29 29 29 34 35 34 40 40 37 35 35 36 36 35 34 33 32 29 29 29
31 30 31 32 32 30 31 30 26 29 28 15 40 18 70 50 36 30 11 7 27 28 21 25 27 29 32 36 39 40 40 40 37 35 36 35 34 33 33 31 30 29 29 30
36 39 31 26 29 27 31 34 11 5 5 12 14 20 62 29 19 29 33 36 32 33 35 30 30 34 29 33 35 35 36 34 37 37 36 33 32 32 31 30 29 29 29 30
21 19 8 5 6 15 22 23 15 6 4 8 10 18 33 25 27 33 40 45 44 26 22 23 23 25 23 22 22 19 24 28 33 35 33 30 31 31 30 30 29 29 30 31
19 13 5 10 23 23 18 23 30 35 44 23 39 46 53 50 40 24 20 27 22 22 40 31 27 25 25 19 21 20 22 29 30 31 29 29 30 30 29 29 29 30 30 30
22 39 32 21 23 27 33 32 21 18 9 20 21 29 32 37 38 43 39 29 34 30 18 19 17 24 28 26 26 24 23 27 30 27 27 28 28 29 29 31 31 30 30 30
30 29 42 38 27 22 30 32 34 36 28 9 11 16 25 28 25 22 22 29 28 20 18 22 26 17 18 26 27 26 27 29 28 29 28 28 29 31 32 32 31 30 30 29
23 28 45 45 40 34 32 37 35 17 11 19 16 22 40 38 36 35 38 44 46 48 47 38 29 23 23 24 21 30 31 32 30 29 24 25 30 32 32 31 30 30 29 29
32 11 29 37 20 14 27 37 38 41 34 34 23 23 48 43 56 55 52 51 41 38 51 45 39 32 32 23 20 21 30 35 33 28 21 24 28 31 31 30 29 30 29 29
28 34 27 34 37 42 45 44 47 47 38 44 43 44 50 60 52 44 49 49 47 50 45 40 37 44 38 30 26 21 21 31 35 25 21 21 24 28 27 28 30 30 29 29
23 32 34 43 42 47 51 52 48 49 49 44 56 58 53 46 46 51 40 40 46 44 49 51 47 50 50 38 33 33 24 27 37 28 22 22 24 27 28 30 31 30 30 29
31 41 40 47 43 39 44 44 46 39 41 41 42 47 40 39 43 33 30 31 34 42 43 39 49 51 48 38 33 30 36 26 35 37 28 26 26 28 31 33 31 31 30 30
39 43 33 33 35 32 28 35 35 31 38 33 37 27 29 26 26 27 22 24 29 31 35 41 39 44 55 49 45 34 34 35 32 44 38 30 29 28 32 36 34 32 30 30
30 30 29 23 24 8 38 44 32 25 32 35 30 24 34 37 46 38 29 27 33 30 30 34 36 42 46 44 42 37 32 35 36 43 42 35 32 31 33 36 34 33 30 30
10 14 17 9 20 29 37 19 37 37 41 30 22 35 33 36 36 33 31 35 38 36 34 34 34 38 47 45 43 36 33 30 34 37 39 37 35 35 34 35 33 31 31 31
7 23 20 32 21 11 45 33 25 22 33 14 37 47 38 37 42 38 38 42 42 39 39 36 37 38 48 48 48 40 32 33 33 30 34 36 37 37 34 34 32 32 31 31
29 32 25 25 23 28 32 22 23 22 25 42 34 32 34 36 39 48 46 44 43 42 43 43 36 38 38 48 53 47 33 33 37 35 33 36 37 34 33 33 32 32 30 30
34 17 29 13 10 18 26 38 36 44 39 36 39 39 40 41 41 42 46 45 44 44 46 45 39 43 38 35 50 52 39 38 35 34 33 37 34 34 35 33 32 31 29 28
23 25 34 25 36 49 39 39 36 31 33 36 37 39 36 38 37 38 41 39 40 42 44 45 43 46 39 34 36 44 41 39 35 32 36 37 34 34 34 32 31 29 28 27
25 23 37 41 41 42 36 34 31 31 32 34 35 37 37 37 36 38 38 38 39 37 42 44 43 39 28 28 37 36 41 38 35 35 38 35 34 35 33 32 30 29 27 25
48 43 40 43 38 34 32 30 32 32 30 30 31 32 33 34 34 34 36 36 37 38 39 37 42 32 9 12 24 29 34 32 34 35 33 33 34 32 30 30 28 26 25 22
39 39 37 35 28 27 36 33 24 29 32 35 35 36 32 32 34 34 35 35 37 39 39 37 43 19 4 18 21 26 27 28 30 31 32 32 30 29 29 27 26 22 22 23

GFSCGP_700_spd_018.txt.gz
Wind_Speed
17 18 16 14 20 20 22 23 26 29 28 34 40 45 45 41 41 42 41 38 36 35 32 32 36 35 34 36 37 39 40 37 42 44 45 44 42 41 42 40 38 36 34 33
17 18 14 14 16 19 22 24 26 26 25 33 38 50 48 42 36 31 27 25 22 24 24 22 27 32 35 39 41 41 42 41 41 39 40 42 41 42 41 40 38 38 36 34
12 16 15 11 15 21 22 24 23 25 30 35 31 42 18 21 40 26 17 15 19 19 12 12 19 26 30 30 33 41 45 44 45 41 42 43 44 44 43 42 41 39 35 32
10 9 15 24 25 22 19 18 23 27 20 18 20 31 30 12 9 12 16 11 9 14 21 16 19 20 16 18 28 34 38 45 49 48 49 45 43 39 38 38 38 36 34 35
13 21 23 22 18 22 18 26 24 26 24 25 17 14 13 24 14 7 7 14 16 11 11 16 19 19 24 27 27 26 34 37 44 49 51 48 47 42 40 41 40 39 39 40
17 16 24 23 15 12 15 17 19 18 13 10 11 19 24 7 2 15 20 22 19 21 25 32 32 36 43 47 43 35 34 37 38 40 45 48 47 45 47 43 41 40 41 41
21 9 4 7 3 8 9 15 12 7 5 10 7 14 33 28 22 26 24 27 31 37 47 45 51 49 49 41 48 45 37 37 40 44 42 43 44 46 47 44 41 41 41 39
8 2 3 7 12 11 13 6 9 9 11 20 31 21 22 18 20 23 20 23 24 26 30 34 36 30 31 27 27 34 39 40 40 42 44 45 47 49 49 46 42 42 41 37
11 5 4 15 20 18 6 8 10 21 32 30 28 32 37 29 21 27 32 37 40 42 43 44 41 37 29 29 27 23 30 35 38 40 44 51 52 52 50 46 44 42 39 39
7 17 9 9 6 8 7 13 15 15 8 13 18 34 41 33 34 41 45 52 54 56 60 60 61 56 43 40 39 32 26 24 35 38 39 42 48 48 47 48 46 42 41 39
20 12 10 19 13 20 22 11 9 11 15 12 18 23 22 39 51 50 51 48 55 62 62 63 63 63 61 51 47 43 33 28 23 31 34 34 38 42 45 49 47 44 42 40
17 13 22 27 16 7 6 6 8 18 27 35 39 54 47 39 41 41 42 43 44 40 38 38 39 52 59 59 52 47 42 36 25 22 30 36 37 39 43 47 48 46 43 41
22 6 17 8 4 9 7 23 27 29 31 37 29 34 38 42 42 39 40 42 38 41 36 37 34 33 39 46 48 39 36 39 33 23 22 32 37 39 43 46 48 46 44 42
25 17 20 21 26 29 36 29 28 29 32 38 36 42 40 40 40 37 41 35 36 38 39 38 37 32 33 38 39 39 27 35 36 30 22 25 35 37 41 46 49 46 44 40
14 15 18 25 30 31 32 30 30 30 32 35 41 38 36 37 37 38 35 37 39 38 37 35 37 41 38 37 35 38 31 31 36 36 27 23 30 37 41 46 48 46 43 39
12 17 17 27 28 28 30 30 32 29 26 33 36 37 35 35 34 38 35 37 40 37 33 36 35 38 43 41 37 35 27 26 37 36 33 26 24 35 41 45 46 45 42 38
19 16 15 26 21 22 22 19 20 25 29 30 30 34 33 31 37 37 41 40 33 31 39 42 40 34 38 38 36 38 33 26 27 40 38 32 24 29 40 44 46 44 40 38
18 15 19 22 21 14 14 26 30 23 29 26 29 28 28 26 37 47 36 31 34 39 41 40 39 37 35 39 40 39 37 31 21 30 41 43 31 26 35 45 47 46 42 41
13 14 13 13 23 29 29 25 23 24 34 23 28 23 28 37 40 43 25 33 42 43 42 40 38 37 37 39 41 41 39 36 24 25 43 48 41 32 31 44 47 47 45 42
12 17 20 23 24 17 32 27 23 16 28 9 14 32 36 36 40 45 41 42 42 41 38 39 38 38 38 40 43 40 41 36 30 29 35 47 50 35 27 42 47 46 45 40
15 17 21 26 31 25 22 17 18 17 28 35 34 33 34 36 38 42 41 43 44 45 41 38 39 38 40 42 44 42 44 41 38 33 26 45 41 45 40 44 49 48 44 40
17 16 22 20 18 16 12 23 23 33 40 35 36 35 39 38 41 44 43 44 45 47 44 38 41 43 42 43 46 44 45 43 39 34 26 34 40 44 51 48 52 49 44 40
15 17 24 24 31 37 36 36 35 34 37 37 33 36 36 40 43 45 46 49 50 48 45 41 43 45 44 44 42 45 43 45 40 30 26 39 38 44 44 49 52 49 45 40
30 22 33 34 40 35 34 34 30 36 36 35 33 33 37 42 46 49 49 49 49 48 44 42 41 43 44 43 40 44 41 50 43 23 29 34 38 38 43 48 48 49 44 42
40 32 32 34 35 32 32 35 40 37 32 28 29 35 39 44 47 49 49 50 49 47 44 44 42 41 41 42 42 41 42 51 39 22 29 32 39 42 44 47 48 45 42 35
24 22 27 36 36 39 45 38 40 36 35 32 39 43 49 52 55 56 53 51 48 46 44 44 39 38 37 39 39 39 43 47 32 23 29 39 34 37 44 46 48 42 34 33

GFSCGP_700_spd_024.txt.gz
Wind_Speed
17 16 11 13 16 19 24 23 23 23 22 23 23 30 36 13 11 10 10 10 15 20 21 23 22 29 24 21 26 25 29 27 34 39 48 42 41 40 39 35 37 39 40 41
12 13 12 16 19 19 15 20 25 26 21 26 30 25 13 17 15 13 15 16 19 23 27 27 27 27 30 29 30 29 30 32 31 33 43 48 46 44 43 42 40 39 38 37
10 11 22 19 14 17 18 20 24 25 29 26 15 16 6 5 17 17 19 21 23 24 27 26 29 27 28 31 31 32 32 34 38 38 36 46 51 54 50 48 41 39 39 36
10 12 15 17 15 14 20 12 20 26 22 8 17 10 20 14 17 15 13 12 17 21 21 23 25 26 30 33 32 30 30 28 29 40 43 37 45 53 52 50 45 43 44 40
9 11 17 20 14 17 20 17 19 22 24 22 25 10 5 17 7 1 1 7 14 19 23 24 25 26 24 29 34 27 27 28 27 27 43 49 46 47 49 49 46 48 47 46
11 9 15 14 11 13 16 15 27 13 16 10 16 18 5 11 13 7 1 8 14 21 29 33 34 36 37 37 39 42 39 37 36 34 36 36 46 53 51 49 52 48 49 50
10 8 16 18 17 5 10 19 8 2 5 5 5 7 4 9 7 3 7 12 18 22 33 42 43 43 47 49 50 53 56 57 55 47 39 37 39 40 57 53 55 55 50 50
6 5 5 7 15 15 21 6 6 5 4 10 33 5 8 10 10 7 17 21 31 38 38 41 44 44 48 48 51 52 56 58 59 55 49 43 36 34 36 56 58 60 57 53
8 5 13 16 24 17 6 7 11 11 20 19 11 12 10 15 16 24 31 36 40 40 37 40 40 46 41 34 33 30 32 40 46 48 42 46 46 39 33 37 49 61 60 58
5 14 14 10 16 10 9 11 4 4 5 5 7 17 15 30 37 41 42 43 44 47 45 47 51 42 39 39 37 30 35 41 42 40 37 38 39 38 35 38 42 51 57 56
14 8 5 13 11 13 12 17 16 18 17 4 5 10 9 25 35 39 43 39 37 35 36 41 43 44 43 38 31 35 37 36 40 39 33 37 36 30 29 35 38 44 50 50
15 10 14 22 14 18 16 13 12 9 7 13 12 44 41 26 34 43 39 38 35 33 38 39 41 43 44 34 35 38 42 37 34 39 38 37 39 39 34 32 32 42 49 45
14 5 10 3 3 5 4 4 9 16 22 32 19 27 35 50 46 40 40 35 33 37 35 40 38 40 37 43 44 42 38 31 32 37 41 37 40 33 38 32 33 31 39 39
14 12 11 13 19 25 31 27 25 29 33 36 39 48 44 43 41 39 36 34 39 36 37 40 36 35 37 44 48 34 37 39 36 37 36 37 36 38 34 42 37 27 33 36
10 12 11 18 25 29 31 31 31 30 34 35 48 45 44 38 42 42 38 36 38 42 41 38 40 40 42 47 45 41 37 38 38 33 35 37 36 39 40 35 45 30 31 33
11 13 18 28 24 19 27 32 34 32 32 32 35 42 40 36 42 40 34 36 38 40 40 37 36 44 48 43 43 44 41 40 37 34 34 35 34 39 39 36 39 49 25 39
18 12 15 9 11 29 21 4 5 20 28 27 33 38 42 42 34 33 39 34 37 42 32 38 47 44 41 37 41 45 42 41 41 34 36 36 33 40 41 35 33 37 34 39
14 11 12 20 23 4 5 10 27 28 30 34 37 35 38 36 35 38 41 45 47 39 38 44 40 42 43 40 42 44 40 38 40 37 37 36 36 36 40 40 31 31 37 36
14 13 12 7 12 30 29 2 23 33 38 32 33 32 33 35 46 51 51 47 46 43 43 38 38 39 41 42 42 43 42 39 40 37 36 34 36 41 41 35 34 27 33 31
11 15 19 19 13 6 11 37 26 27 38 20 25 41 50 56 52 54 49 47 47 42 40 39 41 44 46 46 46 43 43 42 40 38 38 37 36 41 37 38 32 28 26 23
12 16 25 25 26 25 31 24 27 22 38 50 52 47 50 53 51 55 52 47 46 47 46 45 48 52 54 51 52 47 43 43 41 40 40 36 35 38 37 39 29 29 25 23
13 9 13 16 23 21 10 32 38 52 54 49 48 51 55 53 56 53 51 48 49 54 54 52 56 53 53 57 55 50 44 43 42 44 41 39 36 36 37 37 28 24 29 22
13 16 18 18 24 42 47 50 43 37 42 47 49 58 56 53 53 54 55 55 64 62 62 59 57 63 57 59 53 51 45 44 43 45 41 40 36 32 38 34 25 26 30 33
27 25 32 35 39 34 34 31 35 41 51 55 55 52 48 51 57 61 62 67 67 62 61 58 62 64 61 55 52 50 45 43 44 45 41 39 34 32 38 26 22 25 34 36
33 31 33 34 34 32 30 40 44 47 53 53 51 54 57 58 62 62 67 64 60 57 55 56 56 54 52 51 48 48 43 40 43 42 38 38 32 31 36 20 18 26 34 35
29 26 24 32 32 36 41 44 48 55 56 53 53 57 58 59 62 57 52 50 50 49 48 48 48 47 45 46 43 41 38 39 41 38 35 33 33 36 30 21 19 27 32 33

GFSCGP_700_spd_030.txt.gz
Wind_Speed
15 11 11 8 7 9 13 17 22 23 25 22 18 28 31 23 16 16 20 21 23 27 29 30 30 30 30 30 29 31 34 37 41 38 40 42 43 44 41 40 40 39 35 35
11 9 5 5 9 14 17 19 22 21 14 22 20 19 16 13 14 13 18 22 24 25 25 25 25 27 27 26 26 28 31 34 36 36 38 41 43 47 47 44 44 41 42 43
7 7 12 13 13 14 17 18 19 20 23 21 9 9 9 9 13 15 18 21 25 25 25 24 25 26 27 26 26 25 29 32 34 33 31 34 38 42 44 47 47 48 47 47
7 7 8 11 15 18 15 11 15 18 18 8 10 6 10 15 18 17 20 22 24 26 28 26 25 25 27 27 28 30 31 31 33 34 36 36 36 38 40 42 44 50 50 49
5 8 13 16 10 11 16 18 18 27 25 22 10 7 11 18 19 20 20 21 23 26 29 31 31 31 32 33 35 37 37 38 38 39 39 39 40 41 46 47 47 49 51 52
3 7 10 11 13 15 18 19 22 8 6 4 8 4 14 18 21 19 19 20 22 26 30 33 37 39 40 42 45 48 51 53 54 54 54 54 55 56 53 54 54 52 51 50
9 5 8 12 12 11 12 13 6 2 1 6 12 9 14 23 22 19 19 18 22 30 36 40 43 47 48 51 53 54 54 55 54 54 53 51 53 56 60 60 63 66 63 60
3 4 6 8 11 11 10 8 1 4 3 6 12 8 9 20 20 16 15 19 31 38 43 46 47 46 49 47 47 48 46 40 39 40 39 38 42 47 46 47 47 48 51 54
4 4 10 11 12 10 6 3 6 6 10 5 6 9 11 19 23 20 21 27 38 46 47 45 41 41 43 47 50 52 52 51 45 37 35 36 38 43 48 50 45 44 43 43
7 9 7 7 8 6 7 8 4 3 3 5 8 11 19 19 25 23 26 37 44 52 49 43 42 44 47 54 54 52 50 48 45 37 35 34 32 33 38 44 51 47 41 40
12 5 5 8 7 11 8 7 6 6 7 4 4 8 14 19 22 27 37 45 53 49 43 42 47 49 49 51 48 47 46 45 42 42 37 38 38 34 35 38 41 45 43 38
7 8 9 11 11 7 9 10 11 6 4 8 6 27 34 32 32 31 49 49 43 36 39 44 41 46 48 47 45 46 46 51 43 43 45 40 39 38 35 36 40 40 43 38
11 6 7 3 2 4 10 12 12 13 18 22 7 18 23 34 46 39 45 45 39 47 48 50 50 48 45 44 45 55 51 44 41 45 44 42 38 36 34 36 40 42 41 39
13 9 9 11 13 17 21 23 24 26 22 28 41 54 39 39 38 43 44 48 52 54 52 50 49 48 48 50 53 46 46 43 45 41 41 41 38 38 35 36 40 40 39 39
12 11 13 15 19 24 27 29 25 29 30 29 39 39 38 37 41 46 51 50 51 55 55 53 56 56 57 52 50 49 47 48 42 40 38 35 36 37 37 37 38 40 39 36
18 11 19 24 20 12 28 30 20 23 25 32 32 41 37 40 44 46 47 54 59 56 51 50 52 54 51 55 52 50 45 42 40 42 40 38 35 37 39 39 39 40 40 40
18 12 14 11 15 25 23 8 14 14 18 24 33 40 41 42 43 45 53 56 58 58 57 63 66 68 64 54 48 45 43 45 43 44 44 44 41 39 38 38 37 40 38 38
17 15 13 15 17 3 10 26 20 26 27 27 36 34 31 38 51 55 56 57 63 66 68 71 65 60 54 49 47 46 48 49 49 47 45 44 42 42 39 38 37 37 37 38
12 14 10 7 8 26 24 8 16 21 40 36 17 23 40 53 57 60 58 63 67 70 71 61 60 58 60 59 58 56 56 56 57 55 49 44 42 45 41 38 37 36 37 37
14 15 16 13 6 6 14 22 25 26 38 14 30 51 50 53 59 66 66 67 65 60 57 54 52 51 48 48 47 48 51 51 49 48 49 47 44 46 42 38 38 35 36 37
15 20 29 27 15 20 24 21 16 14 28 37 50 46 49 54 58 66 65 59 56 56 56 55 55 55 53 50 48 49 46 45 41 37 41 44 46 45 42 39 36 35 35 35
15 11 12 14 13 17 12 17 25 35 45 47 47 45 53 57 62 60 58 58 57 57 56 55 55 54 51 49 46 46 46 43 41 40 40 44 44 42 39 39 34 34 33 33
20 24 19 21 25 32 40 37 39 41 46 44 43 47 51 58 57 56 57 57 57 57 58 54 52 51 49 47 46 48 47 43 40 39 38 37 38 36 36 35 33 32 32 30
28 29 32 38 43 37 37 36 38 42 39 40 43 47 53 54 53 54 54 55 55 57 55 51 49 49 52 50 45 42 40 37 36 36 36 35 32 31 31 30 31 29 29 27
37 39 39 41 41 32 31 32 32 34 36 40 43 48 50 49 50 50 52 51 54 53 51 46 47 47 50 50 40 33 31 30 31 31 31 29 27 27 26 28 27 27 25 25
41 34 32 35 31 31 33 32 32 34 38 41 46 47 45 45 47 47 47 48 48 50 48 46 45 45 46 44 35 28 25 25 25 24 24 23 21 20 24 24 23 21 23 21

GFSCGP_700_spd_033.txt.gz
Wind_Speed
14 13 12 12 9 8 10 15 19 18 19 13 19 22 23 22 17 15 16 17 19 20 21 23 24 25 25 25 26 27 29 29 31 33 35 39 44 46 43 42 42 43 44 44
13 9 7 6 8 12 14 16 19 14 9 16 17 19 16 16 17 18 17 19 20 20 21 22 22 23 24 24 25 27 28 28 28 30 33 37 39 41 42 43 42 42 46 46
6 7 10 11 10 11 15 14 13 15 18 16 10 8 13 17 18 19 20 21 21 23 24 25 26 26 26 28 28 28 28 29 30 30 26 26 30 34 35 38 39 41 43 41
7 6 6 9 11 14 12 13 16 17 17 5 9 6 18 21 20 20 23 24 26 26 27 28 29 31 30 31 32 33 34 36 37 37 37 37 37 37 37 37 38 39 41 47
6 8 11 12 10 10 13 17 19 22 24 21 17 10 9 20 22 21 22 23 25 28 30 32 34 36 38 38 39 40 42 44 47 49 51 51 51 51 51 50 49 48 46 43
8 9 9 8 11 12 16 17 21 11 7 4 5 10 11 18 21 24 21 22 23 26 30 32 34 37 39 43 46 49 52 52 52 52 54 55 57 58 58 58 58 57 55 53
6 7 8 8 9 12 12 14 6 3 2 5 7 9 17 19 21 21 22 24 24 28 31 34 40 47 50 49 48 48 51 53 53 51 49 48 45 45 45 46 48 51 50 48
1 4 5 5 9 8 10 8 2 4 3 6 14 8 7 12 19 23 25 26 28 31 37 42 48 50 47 45 48 49 50 50 48 47 46 42 41 37 39 39 41 44 46 44
3 3 7 10 10 8 6 5 7 6 9 4 6 9 16 17 23 25 28 29 32 35 41 48 49 46 47 50 50 50 52 53 47 44 42 43 38 36 39 39 41 42 44 46
3 5 5 6 9 9 8 7 4 5 3 5 7 10 18 18 22 25 29 32 35 40 47 49 46 47 50 50 52 54 54 52 44 40 42 45 42 42 39 43 44 46 47 47
8 3 4 7 7 9 9 7 5 5 6 4 4 7 15 24 20 23 25 31 44 48 46 45 48 49 50 51 48 47 44 45 45 48 46 44 45 43 43 43 43 45 44 45
6 7 7 8 13 10 11 12 12 7 5 9 5 24 19 15 19 28 28 45 46 45 46 47 46 49 50 50 48 50 50 51 52 53 44 44 44 45 43 41 40 37 39 42
7 6 6 4 3 6 11 14 15 15 17 20 5 16 25 32 39 41 38 44 45 48 48 51 53 53 54 52 50 48 47 48 48 46 47 49 46 44 42 41 41 40 40 41
11 11 10 11 13 15 18 20 20 18 15 21 35 46 32 33 36 42 44 46 48 51 56 57 60 60 60 58 56 58 57 56 53 51 49 49 46 44 42 40 39 41 40 40
10 11 15 14 17 22 26 27 29 31 33 32 43 41 36 34 38 43 45 47 54 58 59 61 63 65 66 66 65 58 56 50 44 44 44 46 46 44 43 42 39 38 39 39
15 12 17 19 20 22 24 29 34 30 32 37 33 39 29 36 41 42 44 53 56 61 61 64 66 66 63 60 56 56 52 50 43 43 44 46 47 45 45 45 44 41 38 38
18 14 14 9 13 20 23 6 18 28 23 22 30 35 36 41 39 42 55 53 59 61 65 66 66 65 64 60 56 54 50 50 52 51 51 51 51 50 47 46 44 42 39 38
21 18 13 13 16 2 11 32 30 22 24 27 30 35 37 35 47 53 48 56 62 65 65 65 64 64 62 59 57 53 52 50 47 46 47 48 50 52 52 49 44 42 40 39
18 17 10 7 8 25 26 15 19 23 35 30 32 23 30 46 53 56 52 58 63 64 63 63 62 61 59 57 54 52 51 49 47 47 46 43 41 43 46 46 43 42 40 40
19 19 19 11 6 6 21 26 24 25 38 19 27 32 47 50 55 58 57 59 62 61 61 61 60 59 57 54 51 50 49 49 48 44 42 41 39 38 38 38 40 42 41 41
18 20 27 28 15 18 26 20 20 16 25 35 40 46 47 51 50 56 58 59 58 58 59 57 57 57 54 49 48 49 49 52 48 44 43 41 36 37 39 41 40 41 42 41
14 10 16 14 12 14 24 20 25 33 40 40 45 45 47 49 52 54 56 58 57 56 54 54 56 56 51 47 45 48 52 52 45 42 41 38 36 34 35 36 38 39 40 40
24 25 25 17 26 34 43 41 40 40 40 43 44 42 45 49 51 53 55 55 54 52 52 53 53 52 48 45 43 46 49 43 40 37 35 32 31 31 33 36 35 34 34 33
29 27 38 37 43 39 41 41 37 39 39 38 39 41 44 48 49 51 51 51 50 48 50 49 50 49 48 42 40 42 43 38 35 33 31 27 28 26 28 29 29 28 28 27
37 41 45 46 40 37 36 33 32 31 34 34 36 39 42 45 46 48 49 47 45 44 44 45 46 46 45 44 43 41 39 40 34 30 27 25 22 21 21 21 22 22 22 25
38 44 40 36 33 34 32 33 32 31 32 33 36 39 41 43 44 46 45 42 40 41 40 42 41 43 46 46 43 41 37 34 33 28 23 20 19 16 14 14 14 17 20 19

GFSCGP_700_spd_036.txt.gz
Wind_Speed
14 14 14 15 13 9 8 11 14 14 19 15 16 20 18 20 18 16 16 17 18 19 19 19 20 20 21 22 24 25 27 27 27 26 26 28 30 33 36 37 38 39 41 43
15 14 13 9 7 10 12 13 15 9 7 18 18 19 18 17 17 17 17 17 17 19 20 21 23 24 25 26 27 28 29 29 29 29 28 28 29 30 32 36 37 38 40 41
11 8 8 10 11 10 12 12 8 11 15 19 13 17 16 15 17 18 19 19 19 20 22 24 24 25 27 28 29 31 33 34 36 37 37 37 36 35 32 32 33 35 37 40
8 10 9 8 9 12 10 7 14 17 15 6 9 9 18 20 22 21 21 23 24 25 26 27 29 30 32 34 36 39 41 43 44 45 46 48 48 49 49 48 44 43 40 38
8 10 10 11 11 9 10 13 17 20 21 18 15 9 10 14 19 21 22 24 26 27 29 29 31 34 36 38 40 42 45 47 50 52 53 54 56 57 56 54 54 53 49 48
10 11 11 8 9 11 12 14 19 11 7 4 2 9 8 11 14 19 22 24 26 27 29 31 32 35 39 43 48 51 55 57 57 56 56 55 52 47 46 46 46 45 45 44
7 9 10 8 8 9 9 11 5 4 3 5 4 8 19 17 18 19 21 24 26 29 31 33 37 41 45 48 52 55 56 56 55 53 49 48 45 44 40 40 42 42 42 39
5 4 7 6 7 6 10 7 2 4 3 6 14 9 6 11 14 18 21 24 28 30 34 36 40 44 48 51 51 51 53 55 55 55 52 48 44 41 37 40 42 43 43 43
3 4 7 8 6 6 5 5 6 5 8 4 6 9 15 19 17 16 20 25 29 32 36 39 44 48 50 49 50 52 54 55 54 54 53 51 49 48 47 45 44 45 43 44
2 4 5 6 7 7 7 9 4 5 3 5 6 11 17 14 14 17 20 24 29 33 37 45 46 44 46 49 53 52 53 54 53 53 54 53 52 51 50 45 41 44 46 45
7 5 4 6 5 8 10 11 6 6 7 4 3 8 14 24 20 16 20 25 28 41 43 44 45 46 50 51 52 54 54 55 54 54 53 50 48 46 44 43 41 43 44 44
7 5 6 7 12 13 15 17 15 8 6 9 5 22 14 12 21 20 20 33 41 44 44 45 49 52 54 55 56 56 56 53 52 51 53 53 52 51 48 44 42 44 44 42
6 5 5 5 7 10 14 16 18 20 22 20 5 15 20 32 38 34 38 42 45 44 47 52 53 57 60 60 61 59 58 57 56 55 52 51 49 45 45 46 45 44 44 43
12 13 13 12 12 16 18 22 22 21 17 22 35 47 38 37 36 34 40 44 44 47 53 53 57 60 61 61 60 59 59 57 55 53 52 50 46 42 41 45 46 43 43 44
13 15 17 19 21 23 24 26 30 33 35 32 43 44 35 31 32 38 41 43 46 52 54 55 60 62 62 61 61 59 58 55 53 53 52 50 48 45 45 46 46 44 42 43
16 15 19 23 24 24 24 21 30 31 33 36 35 40 30 30 37 39 39 44 51 55 56 58 61 62 61 61 60 59 58 57 54 52 50 49 49 48 43 49 49 48 46 42
22 21 15 12 19 20 22 8 17 26 28 26 32 31 33 37 38 37 45 49 53 53 57 60 61 62 61 60 59 59 57 54 51 49 47 46 46 46 45 42 42 47 50 46
27 21 16 15 17 3 14 16 24 23 26 29 32 33 34 34 39 43 46 50 52 55 58 60 60 60 59 58 57 57 53 50 50 50 48 46 46 44 42 42 42 39 40 42
27 23 13 8 11 27 30 15 19 24 35 30 31 26 33 37 43 48 48 49 52 54 57 58 58 57 57 56 57 56 52 48 48 48 47 51 47 43 41 38 39 37 36 34
21 23 24 13 7 7 16 31 25 25 39 22 32 37 38 40 49 52 49 50 53 54 56 56 55 55 54 54 53 53 52 48 46 48 49 47 41 38 37 37 33 31 34 35
20 24 30 30 15 22 21 20 18 16 34 41 44 44 41 45 50 50 50 51 51 53 54 52 50 50 48 49 49 51 50 48 47 46 46 43 36 33 32 32 33 35 32 36
15 11 14 14 13 15 15 17 27 36 44 45 44 43 45 47 47 47 48 50 51 53 52 49 48 46 45 47 51 54 53 48 46 43 42 38 32 29 28 28 28 31 33 30
23 31 29 31 35 31 40 39 42 44 45 44 43 42 41 43 43 45 47 48 50 51 49 46 45 44 43 45 49 54 49 48 47 41 38 37 30 25 24 25 24 24 26 26
30 31 38 43 47 45 45 41 35 40 39 38 38 38 39 40 41 44 45 47 49 48 46 44 44 42 43 45 47 48 45 48 48 42 34 33 29 22 19 19 21 21 20 19
37 39 40 43 38 34 31 33 38 37 34 35 35 36 35 39 40 43 44 46 47 46 43 41 43 43 44 46 47 47 44 47 44 39 30 26 26 21 17 15 15 14 11 12
36 37 39 41 31 36 36 35 34 32 32 31 31 31 34 37 40 41 42 44 45 45 42 41 41 42 44 47 46 44 40 42 41 36 27 27 25 21 17 13 7 8 7 11

GFSCGP_700_spd_039.txt.gz
Wind_Speed
11 11 13 14 14 11 8 9 12 13 17 16 10 17 19 18 18 15 12 12 13 13 13 14 15 17 19 21 23 24 25 25 25 25 23 21 23 27 30 33 34 35 37 37
13 14 15 12 8 7 9 11 13 11 10 16 16 21 20 20 18 15 14 13 14 14 15 17 18 19 21 23 25 26 28 29 30 31 32 33 34 35 36 35 35 35 35 36
13 11 9 7 9 10 9 12 8 10 16 20 18 19 13 14 17 16 15 15 15 16 16 18 20 23 26 28 30 32 34 35 37 39 40 41 41 40 41 40 41 41 41 40
9 11 11 10 9 9 10 8 11 15 15 6 11 8 16 15 16 16 16 15 16 18 21 25 27 30 32 33 35 37 39 41 44 47 48 49 49 50 50 49 47 46 46 46
7 9 8 9 9 9 8 11 15 17 17 16 12 7 8 11 12 11 13 15 17 21 25 27 29 30 32 35 38 40 42 46 48 49 49 50 50 51 52 50 50 48 44 39
13 12 9 9 8 9 9 12 16 10 6 3 2 8 8 8 11 12 14 16 18 21 25 27 29 32 34 37 40 44 47 47 47 49 49 50 51 49 49 48 46 46 45 43
8 10 10 9 8 7 6 7 3 1 1 2 2 8 12 16 18 14 16 16 18 22 27 29 32 34 38 42 46 47 48 49 49 51 51 51 52 53 53 51 48 46 44 43
6 5 9 7 6 5 6 2 1 4 3 4 11 8 6 9 12 14 13 15 18 24 28 30 33 37 43 44 45 48 50 52 52 52 52 53 53 53 53 53 53 52 51 46
5 5 7 8 7 4 3 2 4 5 3 3 5 10 16 20 12 13 14 15 23 26 29 32 37 43 42 45 47 49 51 53 53 54 55 54 53 53 53 53 52 52 53 50
3 4 7 8 7 6 6 5 3 2 1 3 6 12 19 17 14 15 14 22 24 28 32 39 42 43 44 49 49 51 52 53 53 52 51 50 50 49 50 50 53 53 51 47
5 5 4 5 5 7 8 7 4 2 3 3 3 8 18 28 22 13 22 24 26 31 39 45 44 45 50 50 52 54 54 55 55 53 51 48 46 46 47 47 48 49 51 47
7 5 5 8 10 12 12 14 12 6 6 9 5 22 11 15 12 24 28 28 31 35 44 44 45 51 52 53 55 57 58 58 56 52 50 49 48 45 44 45 45 43 43 46
4 4 4 5 7 8 10 13 15 16 18 19 6 15 24 34 38 38 34 34 38 40 43 45 50 52 54 56 57 58 57 55 51 51 50 49 49 48 46 45 44 43 41 44
11 12 14 13 14 15 16 19 20 19 15 20 31 43 32 37 39 36 35 35 38 41 43 50 52 53 55 56 57 57 55 52 52 52 51 50 48 47 46 46 43 41 42 44
13 16 19 20 22 26 26 25 28 32 33 30 38 41 28 31 28 28 33 37 41 43 49 51 52 55 56 57 57 55 53 53 55 56 54 51 48 46 44 44 43 42 39 45
16 16 22 27 28 29 30 28 32 35 34 37 33 36 30 30 31 35 37 40 43 48 51 50 52 55 56 56 55 54 53 53 52 52 52 50 46 45 44 43 43 43 42 40
22 22 19 18 24 24 26 28 22 24 22 27 28 29 31 31 34 36 42 41 45 51 49 51 53 54 55 54 52 51 51 53 52 51 48 45 44 45 44 44 44 43 40 39
25 24 20 17 24 5 21 14 18 27 29 26 28 30 24 32 37 40 40 41 49 48 49 52 53 54 52 50 50 51 50 49 51 50 47 45 45 44 43 41 37 37 36 37
22 23 14 8 11 31 31 21 28 23 32 27 28 29 38 41 42 41 36 45 46 46 49 50 51 51 49 48 49 50 49 49 52 49 46 47 44 41 42 38 34 33 33 34
17 20 21 16 8 6 16 21 30 28 30 13 35 38 42 42 42 43 46 44 44 45 47 49 51 50 47 47 48 50 51 53 54 49 46 47 44 40 42 38 32 29 29 30
19 20 25 28 15 21 22 19 25 11 23 41 47 46 45 44 42 44 42 42 43 45 47 48 49 48 46 46 48 49 50 53 54 49 48 47 42 39 37 35 28 28 26 26
19 13 15 12 10 16 20 21 23 37 48 47 47 45 45 43 42 42 42 42 44 45 46 46 48 47 45 45 47 49 50 51 49 47 46 45 39 34 34 31 27 25 23 24
20 23 24 22 31 36 42 37 35 35 35 39 40 39 41 40 41 40 41 43 44 45 45 46 46 46 44 45 46 49 49 49 45 43 44 42 33 31 31 28 25 22 19 19
28 24 35 42 41 34 36 32 28 34 37 39 41 37 37 39 37 38 40 41 43 43 44 45 45 45 45 45 45 46 47 44 42 40 41 39 34 32 29 27 24 20 16 15
36 37 41 53 47 36 33 30 32 34 36 37 36 35 36 34 34 37 39 40 41 43 43 44 44 44 44 44 45 44 43 39 38 38 39 37 32 29 26 24 21 17 11 9
46 36 39 49 43 39 41 38 38 35 34 33 32 32 30 29 33 36 36 38 40 41 42 43 43 43 42 42 41 41 39 36 37 38 37 33 31 29 25 20 16 14 11 9

GFSCGP_700_spd_045.txt.gz
Wind_Speed
10 9 9 9 13 16 18 14 15 12 20 18 18 19 25 21 21 21 19 18 16 15 13 13 12 12 13 14 15 17 19 20 22 23 25 27 29 31 32 34 34 35 37 38
10 11 17 17 18 17 12 11 11 13 20 16 12 20 18 27 22 21 19 17 16 16 14 13 13 14 15 17 18 20 23 25 28 28 29 30 31 31 33 34 34 34 35 36
11 14 17 16 15 10 9 11 11 12 14 18 18 21 15 21 16 15 16 16 17 14 13 14 15 17 16 18 22 26 29 31 34 36 37 37 39 40 41 41 42 43 43 43
9 20 17 16 11 10 10 15 14 10 9 9 10 9 10 15 13 12 12 15 14 14 14 15 16 17 19 24 28 30 32 35 38 38 40 42 43 43 43 43 44 46 48 50
10 14 10 8 9 12 9 14 13 13 13 15 15 7 7 12 12 10 11 11 12 14 15 16 15 19 24 26 27 30 35 38 38 40 43 45 46 47 48 48 49 51 51 50
15 15 14 12 17 14 15 12 13 10 7 9 11 9 5 6 8 9 11 12 14 14 15 14 18 25 29 31 32 34 39 40 42 44 45 47 48 49 51 52 53 53 53 53
9 12 18 15 12 11 11 5 5 7 5 2 5 7 12 8 11 10 10 11 11 15 14 15 25 30 30 32 35 39 42 44 45 47 48 49 50 51 53 54 55 54 54 54
8 9 7 11 12 5 6 7 9 6 6 7 5 8 5 9 8 9 12 12 16 17 17 23 30 31 33 36 39 42 46 47 49 50 50 51 52 53 54 53 53 52 51 51
5 6 9 11 8 10 5 4 9 8 12 7 8 6 13 11 3 14 12 15 19 18 19 31 31 33 35 38 42 46 48 50 51 50 51 52 53 53 53 52 50 50 49 48
6 6 9 10 10 12 13 9 5 5 5 8 7 11 14 12 12 15 16 18 19 18 29 30 32 34 38 42 45 49 50 51 51 51 53 54 54 53 52 51 49 48 49 49
7 6 6 7 7 5 7 7 7 8 8 7 10 7 8 8 13 13 17 18 20 25 31 30 31 36 40 44 48 49 51 51 51 52 54 55 54 52 50 49 48 48 49 49
8 5 7 8 13 13 14 11 10 9 7 11 10 24 15 13 15 18 22 14 16 21 28 31 36 39 43 47 48 50 51 51 52 54 55 55 53 50 48 47 47 46 47 47
3 4 5 5 6 9 12 12 14 13 16 19 16 22 22 22 29 29 27 24 24 25 31 36 41 43 46 46 48 50 51 53 53 54 55 54 51 48 48 48 49 50 50 49
9 11 12 15 9 13 11 16 20 17 16 27 29 32 28 26 19 19 19 19 25 32 35 39 43 45 44 47 48 49 52 53 54 54 54 52 49 48 48 49 50 52 52 50
10 12 13 18 20 23 26 26 23 26 33 30 37 31 31 29 27 18 22 25 31 39 39 42 43 44 45 46 47 51 52 53 54 54 53 50 48 48 50 52 52 49 49 51
12 10 17 24 18 20 24 27 30 32 31 34 31 31 23 21 21 25 23 33 41 42 40 41 43 44 44 46 49 51 52 53 53 53 51 50 50 51 51 51 48 47 49 50
15 12 8 9 14 17 19 10 13 17 17 18 22 19 17 24 25 23 33 43 42 38 42 43 42 43 44 48 49 51 52 53 52 52 50 48 50 51 49 47 45 46 48 44
17 13 8 12 14 6 6 17 27 22 19 20 23 24 25 20 25 34 43 42 38 42 44 42 42 43 46 48 50 51 51 52 52 50 48 48 49 48 45 45 46 47 46 41
12 11 7 6 10 21 17 8 12 22 25 22 20 22 18 27 38 36 32 37 40 43 41 41 41 45 47 48 49 50 50 50 49 48 47 47 45 46 45 45 46 45 42 40
12 11 11 8 6 5 11 20 21 13 20 10 10 23 34 41 40 27 35 42 41 40 40 39 42 45 46 47 47 49 48 48 48 47 47 45 40 45 43 43 44 42 41 38
11 12 18 16 13 14 19 15 10 11 18 20 33 41 38 35 34 39 41 42 40 39 37 38 42 44 44 45 46 47 47 47 47 47 44 42 39 44 42 42 41 39 38 35
10 7 9 7 8 10 6 14 19 22 34 40 40 32 32 34 36 40 41 41 39 37 35 39 42 43 43 44 45 46 45 46 47 43 41 37 41 40 42 40 36 33 32 30
12 15 14 14 15 19 30 36 33 35 39 33 29 36 36 39 37 40 38 39 37 34 35 39 42 42 41 42 42 44 44 45 44 42 37 40 37 39 37 33 33 35 29 30
18 21 30 29 28 26 28 30 25 22 26 36 40 52 45 39 39 39 37 36 33 32 37 39 40 40 40 40 40 41 43 43 41 37 37 36 39 38 31 29 34 32 28 25
22 33 37 31 31 28 23 26 34 41 46 50 43 41 41 39 37 35 34 31 29 32 36 37 37 38 38 38 38 40 42 40 37 36 36 37 38 36 30 30 32 26 24 24
23 23 25 30 27 32 39 36 33 39 40 41 39 39 40 37 32 33 29 26 29 33 35 35 35 36 35 36 37 39 39 36 34 35 35 37 35 32 27 25 23 24 27 25

GFSCGP_700_spd_048.txt.gz
Wind_Speed
8 8 7 6 13 16 16 19 19 15 19 22 24 26 21 31 29 24 23 22 21 19 19 13 13 13 13 14 15 18 18 19 21 21 22 23 24 24 25 28 30 32 33 33
9 9 11 15 17 19 19 14 14 14 19 24 23 22 24 29 30 23 23 21 20 18 19 14 14 14 14 16 17 18 21 22 23 24 27 30 32 33 35 36 37 38 39 39
9 11 15 15 18 17 11 12 13 14 15 23 19 21 9 27 29 22 19 19 18 19 17 16 16 15 14 17 21 22 24 26 29 33 35 36 37 38 39 39 39 39 40 41
11 17 18 18 17 9 10 15 14 17 12 6 7 10 18 17 19 16 12 13 14 17 15 16 18 19 19 20 26 29 30 30 33 36 39 40 42 43 42 43 43 42 43 44
8 14 14 13 9 12 10 13 15 17 16 16 19 11 7 16 18 10 9 9 12 15 15 16 18 18 18 25 27 30 31 32 35 39 41 44 46 46 46 46 46 47 47 48
14 22 16 13 17 14 17 15 13 12 8 7 14 20 9 13 13 9 8 8 10 13 15 17 20 18 24 31 32 32 34 36 40 43 47 47 47 48 48 48 49 50 51 52
7 13 14 14 16 13 10 5 3 4 4 3 6 9 9 11 13 10 10 9 13 13 15 18 19 23 31 33 33 35 38 41 43 47 48 47 47 48 50 51 52 53 54 54
5 5 10 5 9 7 2 7 5 4 2 4 6 8 8 14 12 10 8 13 11 15 20 22 20 27 32 31 33 38 42 45 48 50 48 48 48 50 51 52 54 55 54 53
3 6 7 10 9 10 7 6 8 7 17 10 9 10 13 16 13 8 10 9 15 19 22 21 24 29 29 31 36 41 45 48 49 47 49 49 50 52 52 53 55 55 54 53
7 4 9 10 9 8 12 7 2 5 3 4 6 13 7 5 9 13 21 14 20 23 23 24 27 26 30 36 40 44 48 48 47 48 49 51 52 53 54 54 55 54 53 52
9 7 6 9 5 3 6 12 8 8 9 3 3 2 7 15 14 15 15 18 23 26 27 27 28 28 33 39 43 47 47 46 47 48 50 52 53 54 55 55 54 53 52 51
6 5 6 8 11 10 12 10 11 7 4 7 11 20 22 11 17 18 18 17 17 19 21 26 32 32 39 43 45 45 45 47 48 51 52 53 55 55 55 55 53 52 52 51
2 3 5 4 5 2 8 10 12 15 19 22 7 12 19 21 20 19 19 20 23 26 25 30 34 39 41 42 43 44 46 47 50 52 53 54 55 55 54 53 51 52 52 52
7 9 9 8 10 13 15 14 13 15 12 24 23 31 22 24 30 27 31 29 25 23 30 36 40 39 42 44 44 45 46 49 51 52 54 54 54 54 53 52 51 52 52 52
8 11 11 16 18 20 22 24 23 24 30 28 35 28 34 32 31 34 32 29 35 36 41 41 38 40 44 43 44 44 48 50 52 54 54 53 52 51 51 51 51 49 47 46
10 9 16 21 16 15 21 25 25 24 24 26 25 26 19 23 28 32 31 34 33 39 38 39 42 46 46 45 44 47 50 51 52 53 53 53 52 51 50 48 44 45 44 44
13 11 10 7 10 15 17 4 7 9 8 15 21 24 25 30 30 29 31 33 41 42 40 43 47 49 47 45 45 48 51 52 51 52 51 51 49 49 47 43 42 44 43 43
17 14 8 11 12 3 3 15 21 19 11 19 22 24 25 25 25 30 35 43 38 40 42 46 47 46 44 43 46 50 51 50 50 50 50 48 48 46 43 39 44 44 43 43
10 13 6 5 5 17 15 7 11 17 23 21 16 16 19 22 31 40 46 42 39 41 45 46 45 44 42 43 47 50 49 49 49 48 47 47 43 41 40 44 44 43 42 40
11 9 10 4 5 4 7 18 19 16 12 8 14 19 27 36 50 44 34 38 45 46 46 45 44 42 41 44 47 48 47 48 48 47 47 43 40 40 44 42 43 41 38 37
11 9 15 15 11 11 12 18 9 10 14 20 28 36 42 49 45 39 45 46 48 46 44 44 41 39 41 45 46 46 46 46 46 46 43 39 38 41 41 42 39 36 37 38
14 8 7 6 6 8 6 13 18 26 34 38 42 44 43 42 42 49 48 41 42 43 43 42 37 39 42 43 43 45 45 45 44 44 39 37 38 38 40 38 35 35 40 39
14 15 11 11 7 12 21 20 23 25 28 33 41 44 47 51 54 45 44 42 43 42 40 35 36 40 41 41 41 43 42 43 44 40 35 37 36 37 37 35 33 33 36 36
18 18 24 25 30 27 28 28 29 27 31 38 42 39 41 41 41 39 38 40 37 36 33 33 37 40 39 39 39 39 40 41 40 35 36 36 37 36 34 29 27 32 33 35
20 23 31 33 33 28 26 25 29 35 31 30 33 33 33 34 37 36 36 36 35 30 30 35 38 39 38 38 36 37 38 39 36 33 34 35 35 33 29 25 23 31 34 34
26 24 22 25 26 33 35 33 30 32 33 32 34 32 33 35 35 32 31 31 25 28 33 36 37 36 36 35 34 35 37 35 33 31 32 34 33 27 23 23 17 27 28 32

GFSCGP_700_spd_051.txt.gz
Wind_Speed
11 11 8 6 8 10 13 18 19 19 17 21 23 27 26 30 27 27 26 28 29 25 22 15 14 13 14 13 13 14 15 18 21 22 21 22 22 23 23 26 29 31 32 34
7 6 7 7 11 12 16 20 21 16 12 16 20 28 29 29 30 24 24 25 25 26 22 14 11 13 14 13 13 14 19 22 25 25 26 28 29 31 32 34 35 37 38 38
7 8 7 11 14 16 18 16 15 14 19 22 26 33 12 12 15 23 24 22 22 23 18 14 13 13 11 13 15 17 23 25 26 28 30 33 34 35 37 38 38 37 38 39
8 14 15 15 16 16 15 18 17 16 19 15 13 10 24 21 15 13 19 18 15 17 16 14 15 15 14 17 18 24 27 26 28 31 35 38 41 43 43 43 42 40 39 40
8 12 12 13 16 15 15 14 13 15 17 19 23 12 12 11 10 9 11 12 10 11 12 15 17 18 19 18 21 28 28 28 30 34 38 43 46 47 46 43 43 43 44 44
13 16 16 16 15 12 12 15 14 12 10 4 9 14 6 6 9 7 11 7 5 7 12 10 15 19 21 21 26 29 29 31 34 39 43 47 48 46 45 45 46 46 47 48
5 8 10 9 13 15 13 10 2 1 1 6 3 8 11 14 13 12 7 6 6 7 7 12 19 22 22 24 31 31 32 35 39 43 46 47 46 45 46 48 49 51 52 51
5 5 11 4 5 6 6 7 3 4 3 4 7 7 5 11 11 11 8 7 6 7 9 17 21 24 24 29 31 33 37 40 44 46 47 46 46 47 47 50 51 52 53 53
5 5 6 8 7 6 7 9 7 5 13 5 6 5 4 6 10 11 12 14 11 12 19 24 26 25 26 29 32 36 41 44 46 47 47 46 47 48 51 52 52 53 54 55
8 5 9 7 8 8 13 5 4 6 2 4 4 1 2 10 14 13 14 14 12 17 22 28 27 26 28 30 35 40 44 46 47 46 46 47 48 51 52 53 54 55 55 55
9 10 5 6 4 5 7 13 9 6 6 5 1 3 7 15 14 11 14 17 22 27 29 29 29 29 29 34 39 42 44 46 46 46 47 49 51 52 52 54 55 56 56 55
7 6 6 7 6 7 9 7 8 6 3 3 3 7 7 9 9 7 13 18 27 30 24 28 27 28 34 39 40 41 45 45 46 47 49 51 53 53 54 55 55 56 56 53
5 5 3 3 5 4 5 8 14 15 16 18 6 8 8 14 23 28 31 31 28 26 25 26 27 35 38 36 38 44 46 47 46 48 50 52 53 55 55 55 55 54 54 53
6 7 8 6 4 12 16 15 14 13 12 18 21 26 24 28 32 33 30 29 27 27 26 29 36 37 35 39 44 48 49 49 49 50 52 54 55 55 56 56 54 53 53 52
7 9 11 12 14 16 19 21 19 21 24 24 31 31 27 26 26 26 27 29 32 32 32 38 43 42 41 46 48 50 49 48 48 50 53 53 53 54 55 55 54 54 50 45
9 9 13 16 15 13 16 18 22 23 19 17 12 15 15 16 21 27 31 34 30 32 41 46 49 42 46 48 50 50 49 47 49 52 53 52 53 54 53 53 51 48 42 43
13 11 10 7 10 14 14 2 8 8 8 12 13 13 18 22 27 29 26 30 34 47 42 39 40 44 48 49 50 50 48 48 51 52 51 51 52 52 51 50 44 43 42 42
15 13 9 8 11 2 3 12 15 5 7 12 18 22 24 25 26 27 29 38 50 37 35 40 45 48 48 47 48 46 46 48 50 49 50 50 50 50 49 43 42 40 42 42
11 12 6 4 4 13 13 2 8 14 19 19 17 15 18 25 29 31 41 43 44 44 48 51 45 46 46 46 46 44 47 48 48 48 49 49 48 47 43 42 41 41 40 38
7 9 11 7 4 5 5 11 18 17 14 13 16 25 32 36 43 43 44 41 45 49 44 42 42 44 44 43 42 45 47 47 47 47 48 47 44 41 41 41 40 38 35 34
7 8 13 14 11 8 12 12 9 6 12 26 34 37 41 40 41 47 46 41 38 37 39 39 40 41 39 38 42 44 45 45 45 46 46 44 37 38 39 38 36 32 30 31
10 9 9 6 6 7 6 10 14 22 28 32 35 37 41 43 45 40 37 34 36 37 37 38 38 36 35 39 42 43 43 44 44 45 43 36 34 36 38 34 27 24 26 33
10 13 12 10 8 13 17 21 25 28 32 35 41 43 43 39 38 33 33 32 33 34 34 34 32 32 36 40 41 42 41 42 43 42 36 33 33 36 32 29 27 21 30 33
16 19 22 23 24 25 31 32 35 38 34 33 35 28 33 35 34 34 34 34 33 30 29 26 30 35 39 39 39 39 39 40 41 39 32 31 34 31 27 24 21 26 30 31
25 27 29 32 31 33 35 33 32 32 32 27 29 30 32 32 32 34 33 30 30 25 24 28 33 37 38 37 37 37 38 38 39 34 29 29 31 28 25 20 21 28 26 27
24 26 26 29 29 29 31 31 34 30 28 29 31 32 30 29 29 29 27 27 25 22 25 30 35 36 36 35 34 35 35 36 36 30 27 28 29 26 23 24 24 22 26 28

GFSCGP_700_spd_054.txt.gz
Wind_Speed
15 16 14 14 15 13 13 14 17 18 22 23 23 23 20 20 28 30 28 23 22 21 21 18 17 15 14 12 9 8 10 12 16 19 20 21 22 24 26 28 30 32 34 35
13 12 12 13 11 10 11 15 20 23 22 21 19 27 25 26 33 24 23 21 20 21 22 15 12 13 13 11 9 9 11 17 21 23 23 24 26 28 31 34 36 39 39 39
12 9 11 11 11 12 16 19 21 22 20 21 25 31 23 12 14 21 18 18 19 19 17 12 10 10 10 11 12 14 16 22 25 25 27 29 31 33 36 37 38 39 39 39
9 13 13 13 14 16 18 19 18 17 15 13 15 9 27 22 14 8 7 11 15 16 11 8 8 9 9 13 16 18 20 25 27 28 30 34 37 40 41 42 42 41 40 41
8 9 10 11 13 13 16 14 14 15 17 18 21 9 14 13 4 2 3 6 12 11 9 9 7 7 11 16 19 20 23 27 28 30 34 38 42 45 46 45 44 42 42 42
13 13 13 12 14 14 13 13 14 17 13 5 5 8 4 2 4 6 5 8 8 7 7 6 7 12 16 19 20 19 27 29 31 34 38 43 45 46 47 45 45 45 45 46
12 16 16 11 11 12 14 12 4 2 1 6 3 6 10 10 13 10 7 2 3 3 4 5 11 18 20 21 20 24 30 31 34 38 42 44 46 46 46 47 48 49 50 51
6 6 12 9 7 5 6 8 5 5 3 4 4 6 5 8 6 6 5 5 5 9 5 9 17 20 20 21 22 29 33 34 39 42 43 46 46 47 48 49 51 53 54 55
6 7 9 10 8 6 6 8 8 5 7 3 5 6 5 1 3 6 4 6 8 9 14 18 20 21 22 23 26 31 34 40 41 42 46 47 48 49 50 51 53 56 57 57
7 6 10 10 11 12 14 7 4 6 2 4 5 4 4 3 8 5 6 12 13 14 18 23 22 21 26 27 29 34 40 40 41 46 49 50 51 51 52 54 56 57 57 58
10 11 5 7 6 6 9 15 10 6 5 5 2 2 4 3 2 7 11 15 19 22 22 19 21 24 28 29 34 39 38 39 43 48 51 52 52 52 54 56 57 59 59 59
8 7 6 8 8 8 8 7 9 6 4 5 3 7 10 7 7 12 24 27 25 20 21 19 21 24 27 33 36 37 37 42 46 52 53 52 52 53 55 57 58 58 58 58
6 5 3 2 6 10 9 9 13 16 17 17 5 8 11 15 14 26 29 26 22 21 22 22 24 25 32 37 37 36 40 46 50 54 55 54 54 55 57 59 59 59 59 58
6 8 9 6 3 5 10 13 13 15 13 18 23 22 18 21 28 27 22 21 22 26 26 26 28 37 45 39 36 39 45 51 54 55 56 54 54 57 58 58 58 59 57 55
6 8 10 11 12 15 18 19 19 22 24 21 25 26 20 15 18 18 21 22 25 24 25 32 37 48 35 36 41 47 50 52 53 53 52 52 54 56 56 56 56 55 53 48
8 9 11 14 15 17 17 15 18 19 18 20 13 8 14 14 19 22 24 27 28 30 38 43 46 37 36 43 48 50 50 49 50 50 50 52 53 54 55 55 53 50 46 45
12 11 8 7 10 11 13 7 8 9 11 11 13 15 16 21 24 24 25 29 32 38 47 42 39 40 44 42 42 44 47 48 47 48 50 52 52 53 53 52 49 45 44 43
15 13 9 8 10 1 4 7 10 8 8 11 15 20 21 20 19 23 31 37 43 45 43 42 42 39 37 39 43 45 46 45 46 49 51 51 51 52 52 48 44 42 42 39
11 9 5 4 4 13 14 9 8 12 18 20 19 17 19 20 27 38 34 35 39 41 42 39 37 36 37 40 42 43 41 44 47 49 49 49 50 51 48 43 42 40 39 30
6 6 9 7 4 5 5 10 14 20 18 18 15 22 29 38 42 41 41 42 41 40 37 35 34 34 37 38 39 38 42 46 46 47 47 47 48 46 42 40 41 38 30 24
4 7 13 15 11 9 12 15 17 9 14 21 28 33 36 37 39 44 44 40 39 36 36 36 36 35 35 34 37 40 43 44 45 45 45 45 43 39 39 39 35 31 26 29
6 8 9 8 8 9 10 13 17 22 27 29 31 34 39 39 40 38 38 39 37 38 37 36 35 33 31 35 40 42 43 43 43 43 43 42 35 35 35 33 29 27 26 31
13 14 12 12 11 21 22 24 26 29 29 29 37 35 38 39 36 38 37 36 35 35 33 32 30 29 32 37 40 41 42 42 41 42 41 36 31 32 31 29 26 25 28 27
20 21 23 24 22 23 25 29 28 27 33 34 35 35 33 36 36 36 35 34 34 32 30 29 27 31 35 38 38 39 40 40 40 40 39 32 29 29 26 23 25 27 26 27
24 26 28 29 28 27 28 30 31 31 31 34 30 30 32 33 33 34 33 34 32 29 28 25 29 33 35 38 37 37 37 38 39 39 35 28 26 25 23 23 24 25 25 26
25 24 23 27 24 25 25 26 27 29 30 27 29 30 29 30 31 30 30 29 29 26 22 26 30 33 35 36 35 34 35 37 38 37 32 25 24 23 25 26 22 22 23 25

GFSCGP_700_spd_057.txt.gz
Wind_Speed
18 19 20 18 18 20 18 15 16 17 18 22 26 29 23 19 25 25 24 26 21 15 17 17 16 13 9 6 6 7 8 8 11 13 16 17 18 20 23 26 30 33 35 37
17 18 17 17 17 16 14 15 17 17 19 23 27 31 29 25 26 28 26 21 15 15 15 14 12 9 5 5 4 7 9 12 15 18 20 21 22 25 28 31 35 39 40 41
15 13 16 15 15 14 14 16 18 20 22 22 26 32 20 14 17 17 16 20 18 13 12 11 8 5 3 3 4 8 13 16 19 22 24 25 28 30 34 37 39 41 42 43
12 15 12 12 13 13 16 16 16 16 15 8 13 10 29 18 11 11 8 7 8 8 8 6 3 2 3 6 9 12 17 20 22 25 27 29 32 36 39 43 42 42 42 41
10 9 11 13 14 12 13 15 16 15 15 18 21 9 12 11 1 1 2 1 2 4 3 1 3 2 5 10 12 16 19 20 25 28 30 33 36 41 44 45 46 43 42 42
14 12 11 12 12 13 14 15 14 16 16 5 8 8 5 1 1 4 4 4 2 0 2 3 3 3 9 13 15 19 20 22 27 30 33 37 43 45 46 46 46 46 46 46
14 16 17 16 15 12 12 10 5 2 0 6 2 5 10 10 9 4 4 3 2 1 3 3 3 11 13 13 17 21 23 25 31 34 37 42 45 46 47 48 50 51 52 52
7 5 11 11 13 7 5 8 5 4 2 4 5 6 3 5 4 3 3 3 2 6 4 4 11 14 14 17 20 24 26 28 33 38 41 43 46 48 50 52 54 56 57 57
5 5 7 9 8 7 4 7 7 4 5 3 6 5 5 0 3 3 1 2 4 8 8 12 15 14 15 19 23 27 29 32 39 41 42 45 48 51 54 55 56 57 58 59
6 5 8 9 11 11 12 7 4 5 2 4 4 5 3 1 2 1 1 4 7 10 13 16 15 15 18 22 28 31 33 38 41 43 44 46 51 53 57 57 59 59 59 60
8 9 4 6 8 9 9 13 8 4 4 4 2 2 2 3 3 4 7 15 19 18 13 13 15 19 23 28 31 32 38 42 42 43 45 49 55 57 59 61 61 60 60 60
6 6 6 7 9 9 8 8 10 7 4 5 3 6 12 10 10 10 16 24 21 14 12 12 15 19 24 28 31 38 44 40 41 45 49 54 57 59 60 59 58 58 59 60
5 5 3 2 6 11 11 11 13 13 15 13 4 6 10 14 15 19 25 26 15 14 16 20 23 24 26 33 39 45 38 39 44 49 54 57 57 56 56 56 57 58 59 59
6 9 9 5 4 4 6 7 11 14 12 14 20 22 15 16 24 26 20 17 19 22 24 24 25 29 39 45 43 40 41 45 50 52 52 51 53 53 53 55 57 58 58 58
7 8 10 11 12 15 16 17 17 20 22 21 28 27 24 23 17 17 17 21 22 24 27 30 34 41 47 44 43 44 46 47 46 48 49 48 48 50 54 56 56 56 56 54
8 8 10 12 14 17 20 18 18 18 15 18 17 19 17 17 18 19 21 22 24 31 36 39 44 45 42 42 42 42 44 44 45 46 46 47 50 53 54 55 55 54 51 46
11 11 10 6 11 12 14 16 14 13 13 14 15 15 15 17 20 21 20 25 33 42 39 40 40 40 41 41 42 42 43 44 44 44 46 50 52 53 53 53 52 49 45 43
15 12 9 8 10 1 5 6 9 13 15 15 14 15 21 21 19 20 23 37 43 40 39 38 40 39 39 41 43 43 43 42 41 45 48 49 50 51 51 50 47 43 43 40
13 10 5 5 5 12 16 16 14 13 14 18 20 18 16 20 27 29 36 36 39 41 39 41 40 40 41 43 43 42 38 40 43 46 47 47 48 49 49 46 42 41 41 37
7 8 10 8 4 5 4 8 12 14 21 14 10 16 21 30 39 40 38 38 40 37 41 40 40 40 40 41 40 37 38 42 45 46 46 45 46 47 46 39 39 39 37 33
7 8 15 15 8 8 13 15 16 9 13 12 19 26 33 36 38 40 40 39 38 41 38 37 37 37 37 36 35 36 40 43 45 45 44 43 43 44 38 37 36 36 33 32
7 6 6 5 7 7 6 12 17 21 24 25 27 31 34 37 38 37 36 38 37 37 36 36 36 34 33 33 36 40 42 44 43 42 42 41 41 37 33 34 31 30 33 33
10 11 8 10 10 22 29 28 27 27 26 28 30 33 35 37 34 35 36 35 35 34 35 34 33 32 29 33 38 41 43 42 41 41 41 41 38 32 31 30 31 32 32 33
17 17 20 21 22 25 27 27 27 28 29 29 31 33 35 33 33 34 34 34 34 34 33 31 30 27 31 33 37 40 41 39 40 41 40 39 35 29 28 26 30 33 31 32
21 24 26 26 25 27 29 27 25 28 28 29 31 31 31 32 31 32 33 34 34 32 29 27 26 30 32 35 38 38 37 38 39 39 38 37 31 28 26 26 28 28 29 31
25 23 21 24 23 23 23 25 24 25 25 29 27 27 28 29 31 32 33 32 30 27 26 27 28 30 33 37 38 35 35 37 38 38 37 34 29 27 26 26 24 26 29 28

GFSCGP_700_spd_060.txt.gz
Wind_Speed
21 23 27 22 18 20 19 17 19 19 17 20 23 27 23 24 26 25 24 23 22 20 17 14 11 11 9 7 9 10 10 9 11 12 13 15 17 19 21 24 26 29 32 35
16 18 16 16 18 19 19 19 19 17 16 20 24 30 28 27 23 22 23 24 23 20 16 12 10 9 6 6 7 9 10 11 13 15 16 17 19 21 24 28 31 35 38 40
16 13 17 16 17 16 15 15 15 16 19 22 26 31 18 18 23 21 18 14 16 18 14 9 9 7 5 4 4 6 9 13 17 19 20 21 23 26 29 32 35 40 42 43
12 14 11 13 13 13 13 13 14 15 16 9 16 10 29 11 10 7 8 10 13 13 11 9 7 5 5 3 2 6 11 15 20 23 24 25 27 30 33 37 40 43 44 43
9 10 13 12 12 12 12 12 14 16 15 17 19 8 9 11 2 4 3 1 2 7 7 6 6 6 4 3 7 10 14 18 22 25 26 28 31 35 40 44 45 46 45 45
12 9 9 10 10 10 11 13 14 16 16 4 5 6 3 3 5 7 4 3 3 7 7 5 6 5 4 8 11 14 18 22 25 27 29 32 36 41 45 47 49 49 50 50
12 12 13 12 12 12 11 9 4 3 1 5 3 5 7 8 4 3 2 3 4 6 1 4 5 3 7 11 14 17 21 24 27 28 30 36 41 45 48 51 53 54 56 56
8 4 10 12 13 9 6 7 4 4 2 4 6 5 2 4 3 3 3 6 3 2 3 6 7 9 11 15 17 20 24 26 28 31 36 41 46 49 50 52 55 58 60 61
5 5 6 8 7 8 6 7 6 4 4 2 4 3 2 1 3 2 2 1 2 2 5 8 13 15 15 16 19 23 25 29 34 37 41 46 49 49 51 54 57 61 63 61
5 4 7 9 10 11 11 6 3 5 2 3 4 4 4 4 4 5 5 5 6 9 11 12 14 15 16 19 22 26 30 35 39 41 46 47 48 50 55 58 61 61 57 57
7 8 3 6 8 10 10 11 8 5 4 4 2 2 3 5 8 8 11 12 15 19 16 14 16 17 19 23 27 30 34 38 43 48 51 49 50 54 57 59 56 56 57 57
5 5 5 6 8 9 9 9 10 6 4 6 2 5 11 10 11 12 14 19 23 24 16 15 17 22 25 26 29 31 37 47 46 46 47 50 52 54 53 54 54 54 55 56
5 5 2 2 5 11 10 11 12 12 11 10 3 5 8 12 15 18 22 27 24 15 17 20 22 25 28 30 34 42 47 45 44 46 47 48 49 50 50 51 52 53 56 57
6 7 7 3 3 4 5 6 9 11 8 11 19 21 17 16 19 24 23 15 16 19 20 22 26 33 38 40 42 42 41 42 43 44 46 47 48 49 49 50 53 55 56 56
7 7 8 9 11 13 14 15 17 20 21 19 25 25 24 23 22 15 15 16 19 21 23 28 38 39 38 39 38 39 40 41 42 44 46 47 47 47 50 52 53 54 54 54
8 7 9 11 13 15 19 19 20 21 20 21 21 19 15 14 14 18 19 22 25 26 32 40 43 40 38 38 38 38 40 42 44 45 45 44 46 49 51 52 53 53 52 48
9 9 9 6 10 13 15 12 14 15 15 14 17 15 16 15 16 18 20 24 30 37 41 40 39 37 39 39 39 40 42 44 44 44 44 46 48 50 51 52 52 50 46 42
13 12 10 9 11 1 4 4 6 11 13 15 15 15 16 19 17 15 23 33 37 36 37 39 38 40 40 40 40 41 42 42 41 42 45 47 49 50 50 50 48 45 40 39
13 11 6 4 4 11 14 12 13 12 13 15 19 19 14 17 23 23 32 36 37 38 37 39 41 40 39 39 39 39 39 39 41 44 45 47 48 48 48 47 45 40 38 35
7 8 9 5 2 4 5 9 11 12 22 8 12 15 19 22 30 33 37 39 38 35 37 38 38 38 39 40 40 39 39 40 43 43 45 46 45 46 46 45 41 36 34 35
6 8 13 13 8 8 14 13 8 8 16 21 23 23 24 27 33 38 40 37 35 37 37 37 37 37 37 37 37 36 37 40 41 44 44 43 43 44 43 42 35 34 33 35
6 6 6 7 8 7 4 12 18 21 25 25 26 26 28 32 36 39 36 35 35 35 36 37 37 36 35 35 34 35 38 40 42 42 41 41 41 41 41 37 32 31 34 35
10 11 7 9 8 20 25 24 26 26 26 26 26 29 31 35 37 35 34 33 34 33 34 34 34 32 29 30 34 36 38 41 41 40 40 40 39 39 37 33 31 30 31 32
14 16 18 20 22 24 25 27 28 27 28 27 28 30 34 35 33 32 32 32 32 31 31 31 31 29 30 32 33 36 39 40 40 39 39 38 37 37 32 29 28 28 30 31
18 19 24 27 28 27 26 25 25 24 24 27 29 31 32 30 31 32 32 31 31 30 30 31 29 30 32 35 35 38 40 39 38 38 38 37 37 35 29 27 26 26 28 29
22 24 23 25 24 24 26 25 24 23 23 26 28 28 28 31 32 32 32 32 31 30 30 31 30 33 37 36 36 38 37 36 37 38 37 36 37 32 27 27 25 24 25 25

GFSCGP_700_spd_066.txt.gz
Wind_Speed
20 22 26 24 22 18 17 20 18 19 18 18 21 24 22 22 23 25 28 29 26 21 21 21 18 17 17 16 16 16 15 14 13 13 13 14 14 16 18 20 22 24 26 28
20 18 17 22 22 18 16 16 12 16 21 20 19 24 24 24 22 18 21 22 21 24 24 22 19 17 16 17 15 14 14 14 14 14 14 16 18 20 23 25 26 28 31 34
18 14 18 17 22 20 19 16 17 14 15 17 20 21 15 12 22 18 14 16 20 21 23 22 17 15 16 15 14 14 13 14 15 15 16 18 21 24 26 29 32 34 36 38
10 11 19 17 16 17 12 16 15 14 12 10 11 10 13 13 9 10 9 9 10 16 17 22 19 16 14 14 15 12 12 13 13 16 18 20 21 24 27 30 33 36 38 41
10 13 10 13 13 13 10 11 11 11 10 11 11 7 7 3 2 6 6 6 6 8 16 19 19 17 15 16 15 15 13 13 16 18 21 23 25 27 30 33 35 39 42 45
12 11 12 12 10 11 10 9 9 12 10 7 7 6 3 2 7 6 7 7 7 7 13 20 22 20 18 18 16 15 16 18 21 23 26 27 29 32 34 38 40 43 47 49
10 10 9 9 9 9 9 5 5 5 4 2 4 4 5 7 5 4 5 5 4 6 11 15 17 17 18 18 17 18 20 23 26 28 29 31 34 36 39 42 45 48 53 53
10 6 11 12 12 6 10 9 7 5 4 1 4 6 4 6 5 4 4 5 5 4 5 8 11 15 17 17 18 21 25 27 28 30 33 36 38 41 43 46 48 54 54 52
7 5 9 10 10 11 8 8 10 3 6 4 4 4 7 8 6 6 6 6 5 4 3 5 7 9 13 20 24 26 26 27 30 34 37 39 41 44 46 49 54 54 52 51
8 4 9 9 9 10 10 6 2 4 3 4 4 5 4 9 9 8 8 8 8 7 7 10 14 19 22 24 25 25 25 27 31 35 38 41 44 47 50 54 51 50 49 50
10 6 4 8 9 8 10 8 8 5 4 4 4 2 6 11 12 12 12 12 12 13 16 20 23 20 21 22 23 26 28 30 36 40 43 45 47 50 49 48 47 48 49 48
8 5 4 7 8 9 11 11 9 6 4 5 2 6 9 10 12 13 14 14 16 19 23 22 17 18 22 26 29 30 34 41 42 39 39 40 41 43 44 45 46 46 46 46
7 5 4 2 5 10 10 12 13 13 10 10 5 2 7 8 11 15 16 19 22 24 19 16 19 23 27 30 33 38 44 42 38 37 38 39 41 42 44 45 45 44 46 48
6 7 6 2 3 4 6 8 10 12 9 9 14 12 12 13 13 17 20 21 21 17 18 20 24 27 33 38 38 38 37 37 37 38 38 39 41 43 44 44 44 46 48 48
9 6 7 8 8 8 10 11 13 17 15 12 12 13 17 19 17 17 16 17 17 19 21 24 28 35 38 37 36 36 36 37 37 37 38 40 41 43 43 44 46 47 47 47
8 5 6 7 9 11 14 15 19 20 21 24 22 21 13 12 13 14 15 16 17 21 23 29 35 39 38 36 35 35 35 36 36 37 39 40 41 41 42 44 44 46 46 46
7 6 5 4 7 8 14 12 12 14 11 11 11 10 11 12 13 14 16 18 20 26 29 36 40 38 36 36 35 35 36 37 37 38 38 38 39 41 42 44 44 45 45 45
8 8 6 4 5 4 6 4 5 8 10 9 9 11 12 13 14 17 19 20 26 29 35 39 39 36 35 35 36 36 35 35 35 35 36 38 40 41 42 43 43 44 44 44
12 11 6 2 5 10 13 14 13 8 10 10 12 13 11 16 19 20 23 26 29 34 38 37 35 34 35 34 33 32 32 32 33 35 37 39 41 42 42 42 43 42 42 40
11 11 9 6 3 4 4 6 7 10 12 7 8 17 20 21 19 14 23 28 31 35 34 32 32 32 32 31 30 30 31 32 35 38 39 39 40 41 42 42 42 41 40 38
9 9 11 9 7 8 13 13 11 4 7 13 20 21 21 20 22 24 26 29 33 32 30 30 31 30 30 29 30 30 32 35 37 38 38 38 39 40 41 41 40 40 37 32
7 6 6 8 7 7 6 6 9 15 21 23 23 23 22 22 23 26 29 31 29 29 30 29 29 28 30 31 31 32 34 36 38 37 36 38 38 39 39 39 38 35 31 29
10 14 6 9 7 11 16 17 19 22 24 24 24 23 23 24 25 27 28 27 27 28 28 27 27 28 29 30 31 33 34 36 35 33 36 37 37 37 37 38 35 28 26 27
15 16 18 17 14 15 17 21 23 24 24 23 23 22 22 24 25 25 25 26 25 25 27 27 28 29 29 30 31 32 33 33 32 34 36 36 36 36 35 35 29 25 25 24
17 17 19 20 19 21 22 23 22 24 24 25 23 22 23 23 24 23 23 24 25 27 27 27 28 28 28 29 28 30 30 31 31 34 36 36 36 35 36 31 26 24 23 25
21 21 21 23 23 23 26 24 24 23 23 21 20 21 23 22 23 23 22 24 25 27 27 27 26 27 28 27 28 29 30 31 31 34 35 35 35 34 35 28 21 20 22 25

GFSCGP_700_spd_072.txt.gz
Wind_Speed
26 24 27 22 19 19 18 18 17 21 13 14 13 20 16 14 19 25 22 20 18 22 25 23 27 27 25 24 23 20 20 21 20 19 18 17 18 18 17 18 19 21 23 25
22 25 19 19 19 19 20 13 15 10 16 13 15 21 24 21 20 26 30 28 18 18 25 28 30 26 26 23 22 22 21 20 20 19 17 18 20 19 19 20 22 24 26 28
20 17 20 20 23 23 19 13 11 13 8 9 15 21 16 14 22 25 23 21 20 18 22 27 29 26 24 21 21 22 22 19 21 17 18 18 20 20 21 25 27 27 28 31
19 14 20 18 21 21 15 15 14 9 10 11 8 5 10 9 21 13 19 16 7 7 20 24 27 26 19 19 21 19 21 22 19 18 17 17 19 21 24 29 32 33 35 37
14 18 15 13 14 15 12 13 14 15 13 11 13 6 4 12 9 14 22 10 8 7 9 22 26 26 19 20 20 18 20 21 20 17 17 20 22 25 27 30 34 36 38 41
9 11 9 15 16 18 14 11 10 9 8 9 24 19 2 13 18 21 18 13 11 9 6 18 22 21 18 18 18 18 18 19 20 22 24 26 28 30 33 35 39 41 42 44
5 10 13 14 20 16 11 10 6 3 5 3 9 12 1 13 12 14 13 11 8 6 4 10 13 15 14 16 16 19 21 21 24 26 29 32 34 36 35 36 39 42 43 46
12 6 11 12 9 8 16 14 7 3 3 4 7 6 9 11 9 9 10 9 7 5 4 6 7 9 12 15 18 21 23 24 26 30 33 35 35 36 36 38 39 43 47 50
13 7 17 21 16 13 12 11 10 2 12 4 7 7 6 10 9 9 9 8 7 6 6 6 8 10 12 14 16 20 23 27 29 31 31 33 36 39 42 44 46 49 49 49
5 7 8 14 13 15 11 11 4 5 2 4 12 9 9 13 8 8 8 8 8 7 8 9 10 12 15 18 23 26 27 28 28 29 33 37 41 44 47 50 51 49 48 48
3 1 5 7 9 6 14 12 7 5 2 1 4 5 6 7 7 7 8 7 9 11 13 15 16 19 23 26 25 24 25 28 32 37 38 42 45 46 46 45 45 46 47 48
9 3 5 9 8 12 13 10 9 4 4 5 2 1 8 11 9 10 9 9 12 16 18 19 22 25 27 25 24 28 31 34 37 42 43 42 41 41 42 43 43 43 45 46
11 4 5 2 8 11 15 14 14 9 8 9 3 3 6 6 6 10 11 16 18 19 21 24 24 27 25 26 29 33 36 41 44 44 38 38 38 38 39 40 42 42 43 43
11 6 1 3 4 4 5 12 12 12 6 5 6 6 11 8 9 12 15 19 20 22 22 24 26 26 28 30 32 34 39 42 41 38 39 38 38 39 39 39 40 41 42 43
7 2 5 8 5 4 7 5 9 13 13 9 11 7 4 7 11 14 17 17 18 21 23 26 28 28 29 31 35 39 43 40 37 37 37 36 37 37 37 39 40 42 42 43
9 2 5 3 6 6 8 10 12 13 13 17 16 16 19 18 18 18 20 19 19 18 25 31 30 31 33 36 40 42 39 37 37 36 35 34 35 37 39 41 42 42 42 41
6 5 1 2 5 7 9 10 12 12 14 12 12 15 15 13 14 16 16 18 21 26 30 29 30 33 36 40 42 38 36 35 34 33 33 35 36 39 41 41 41 40 40 40
7 7 5 3 5 2 2 4 6 10 9 10 11 12 13 14 15 16 19 23 29 32 27 28 31 35 39 40 37 35 33 32 32 33 34 35 37 38 38 37 37 39 39 40
9 7 3 3 3 8 15 10 10 8 8 6 8 12 11 11 20 20 29 27 25 26 30 32 35 39 38 35 34 31 31 31 32 33 34 35 36 36 36 36 38 38 39 39
11 13 8 5 2 4 6 4 4 5 8 7 4 8 18 21 22 24 28 26 26 28 32 35 37 34 33 31 30 30 30 31 32 33 33 34 35 36 35 37 39 39 38 38
6 9 13 9 6 7 15 12 10 4 4 7 13 20 24 24 25 26 26 28 29 32 33 35 32 30 29 29 30 30 30 30 32 31 33 35 35 35 36 39 39 39 38 39
5 5 6 10 8 9 5 8 6 7 14 17 20 24 24 26 26 25 25 27 30 31 32 30 28 27 27 27 28 29 30 31 31 31 33 35 35 35 37 39 38 37 38 36
7 11 5 9 7 7 7 9 13 16 19 22 25 25 25 26 26 24 25 26 28 30 28 27 27 27 28 29 28 29 29 30 30 32 35 35 34 35 37 37 38 36 37 30
12 12 16 15 14 14 15 17 17 20 23 24 27 25 26 25 24 23 24 26 26 25 26 26 26 27 29 28 27 28 29 30 32 32 34 33 33 36 36 36 36 36 33 26
15 15 14 17 17 19 18 16 19 21 23 26 25 24 23 23 21 22 24 23 23 24 26 26 27 29 28 27 28 28 29 31 31 33 31 32 34 36 36 36 34 34 28 25
19 16 17 17 13 16 20 18 22 25 25 24 22 21 21 20 21 21 21 21 23 26 26 26 27 27 28 28 28 28 29 31 32 31 31 32 35 36 36 36 34 30 26 23

GFSCGP_700_spd_075.txt.gz
Wind_Speed
29 25 35 34 30 25 21 19 21 25 26 20 24 24 22 27 31 24 26 18 19 23 23 27 29 29 27 28 25 21 23 20 18 18 19 19 17 17 16 16 17 18 18 20
22 28 30 25 23 23 22 26 24 20 23 21 13 16 18 14 20 18 18 14 22 23 24 25 29 30 29 27 25 23 22 19 17 19 19 18 17 16 17 18 20 21 22 24
17 24 26 25 21 24 25 24 23 21 20 16 13 17 14 16 21 24 22 21 23 26 29 28 28 30 29 26 25 24 21 18 17 18 19 18 18 19 18 20 22 23 25 28
17 22 25 25 26 27 31 19 15 14 16 10 14 5 5 9 17 25 28 20 13 12 27 26 26 27 26 24 24 23 19 18 17 18 19 18 18 20 21 24 27 30 32 34
15 19 19 29 24 23 28 18 18 11 12 9 10 7 8 10 21 24 23 11 7 9 19 21 23 24 26 24 21 19 19 18 19 20 19 19 20 22 24 27 32 35 38 39
7 14 15 18 18 22 18 18 21 10 10 4 19 19 10 15 19 20 16 11 12 12 12 18 22 24 24 20 16 15 17 19 21 22 22 23 24 26 29 31 35 38 40 40
9 12 14 21 14 20 21 20 5 1 3 6 5 17 10 21 21 19 15 16 11 7 7 11 17 17 16 14 11 13 16 19 22 24 27 29 31 32 33 35 36 37 39 40
6 4 9 10 21 13 19 18 7 6 5 4 9 6 9 17 17 15 11 8 8 7 6 7 11 13 14 14 14 16 19 21 24 27 30 32 34 34 35 36 37 39 42 44
2 2 14 15 13 15 20 19 11 2 5 4 6 8 12 15 15 14 9 6 5 6 6 8 10 12 13 14 15 16 19 22 26 28 29 30 32 35 39 41 44 45 45 46
4 2 13 13 13 12 14 19 8 6 2 3 5 8 6 18 17 9 5 6 6 7 9 10 12 13 14 16 19 22 26 27 26 26 28 30 34 39 43 45 46 45 46 46
7 3 7 11 15 17 13 13 7 6 4 4 1 3 6 7 7 4 6 6 7 9 11 13 16 17 19 22 25 26 25 25 28 31 33 36 41 43 43 42 43 44 44 44
3 3 4 8 9 11 13 15 14 6 4 4 1 4 8 6 8 8 6 8 11 12 16 17 20 23 27 25 24 24 26 30 33 35 39 42 42 40 40 41 40 41 42 41
10 7 4 3 7 13 15 13 12 13 7 5 3 3 8 11 13 12 11 12 14 17 18 20 24 27 25 24 24 28 32 34 37 42 44 41 38 38 38 37 37 37 38 40
9 3 1 5 2 4 11 16 18 15 10 7 4 5 13 17 16 15 15 15 19 18 21 22 23 25 25 26 28 30 32 36 40 43 39 38 37 36 35 35 36 38 40 42
6 5 2 3 4 4 4 5 11 17 15 9 6 2 7 8 11 13 15 20 19 20 23 24 25 25 26 29 31 33 36 40 41 37 36 35 35 35 35 36 38 40 41 40
10 5 6 6 5 6 9 10 11 11 14 19 16 14 11 12 12 14 17 19 22 24 28 29 29 29 30 32 33 36 39 39 37 36 34 33 33 34 35 37 39 39 37 38
6 7 3 2 3 6 9 12 15 16 17 15 17 16 16 12 11 13 16 19 23 25 28 29 29 31 33 34 37 40 37 34 33 32 32 32 32 34 35 36 36 36 37 39
5 6 4 3 3 2 3 2 5 8 10 10 10 9 10 12 15 16 18 23 25 27 27 27 29 32 34 38 40 37 33 31 31 31 31 31 32 32 33 35 35 35 37 39
7 8 4 3 5 9 12 12 9 11 11 10 9 9 8 11 15 22 22 24 24 24 27 29 31 34 37 38 36 33 32 30 30 30 29 30 30 31 34 35 35 36 37 39
13 12 9 7 4 5 3 4 2 5 9 9 6 5 10 16 22 23 23 23 24 25 27 30 33 35 34 32 31 31 30 29 28 28 29 29 31 34 36 35 35 36 38 39
8 12 16 13 7 7 12 9 8 5 3 5 10 14 18 21 23 24 25 24 25 27 31 32 32 31 30 29 29 29 29 29 28 28 28 31 32 35 34 34 35 37 38 39
6 5 7 11 7 9 5 7 8 6 9 12 15 18 21 23 24 25 24 25 26 28 29 30 28 28 27 26 27 28 27 27 27 27 29 31 33 32 33 34 36 37 38 37
9 11 5 9 6 5 6 8 11 16 17 16 19 20 22 24 24 23 24 25 26 27 26 26 27 26 25 26 27 26 25 27 26 28 30 31 31 31 33 35 37 37 37 37
14 13 16 14 13 12 12 13 16 18 19 20 21 23 24 23 22 23 23 23 24 23 25 26 26 25 26 26 25 25 27 28 28 29 30 30 31 31 33 35 35 36 35 35
16 15 16 18 16 16 17 17 16 17 17 20 23 23 22 22 22 21 21 22 21 23 24 24 23 24 24 23 25 26 27 26 27 28 29 29 30 32 34 34 36 35 35 29
20 20 22 18 15 17 15 14 15 17 21 23 22 22 21 19 19 19 19 19 22 23 23 21 22 23 23 24 24 24 24 26 28 28 27 29 29 32 34 36 34 33 30 27

GFSCGP_700_spd_078.txt.gz
Wind_Speed
34 31 36 36 29 27 23 26 20 20 21 22 20 19 26 24 21 27 33 29 29 26 21 21 22 24 23 23 22 23 21 23 21 19 18 19 19 17 15 14 15 17 19 19
22 24 25 29 26 28 23 24 24 27 24 21 20 23 19 20 22 22 23 22 17 22 22 25 26 29 26 23 23 23 21 21 20 19 18 18 18 16 16 16 17 19 20 21
24 23 26 29 28 25 26 27 25 23 21 22 19 20 19 18 21 20 24 23 23 22 25 26 28 29 25 22 21 23 23 21 18 19 18 17 16 16 17 18 19 21 22 23
22 23 24 29 28 27 30 30 26 18 21 18 19 5 15 16 18 23 22 24 26 25 25 24 25 27 23 19 20 21 24 17 18 18 17 17 16 17 18 20 22 24 27 30
16 20 24 28 30 25 27 20 22 21 25 19 18 7 15 18 19 21 20 21 22 22 17 15 15 20 19 20 21 23 22 16 17 18 17 17 18 20 23 25 28 30 33 36
19 15 20 24 27 25 21 18 21 19 21 5 14 21 10 19 18 15 18 18 17 15 15 13 17 18 19 22 23 21 17 16 18 19 20 21 22 23 26 28 31 34 37 39
13 9 16 12 22 25 25 25 6 3 4 5 12 16 23 14 13 15 14 14 14 15 11 11 17 20 22 22 19 16 16 18 20 22 24 25 27 29 31 33 35 35 36 37
3 3 5 11 12 21 25 26 10 6 5 4 8 10 9 26 19 17 17 16 13 10 9 9 13 17 18 16 16 16 16 19 21 24 27 30 31 33 32 32 35 37 39 42
4 8 11 12 17 16 19 15 13 3 2 3 6 9 9 18 23 20 17 15 11 9 8 9 10 12 15 16 16 17 18 20 23 26 28 29 29 31 34 37 40 43 45 46
4 3 8 8 9 18 12 16 7 5 3 3 4 7 11 18 24 20 14 12 11 10 9 9 12 14 15 16 18 19 21 24 28 29 29 29 31 34 37 41 44 45 45 44
2 5 3 7 11 12 10 17 10 6 4 4 2 6 12 14 11 10 10 10 9 9 11 12 13 15 18 20 21 24 27 27 27 27 28 31 34 38 43 44 43 42 42 44
2 6 5 8 8 13 16 11 14 6 4 4 1 4 6 7 8 9 7 7 8 11 12 13 18 19 20 22 24 25 26 26 28 31 34 36 40 44 42 40 40 41 41 40
5 3 3 2 6 12 13 14 15 19 12 6 3 4 7 10 11 11 8 9 11 12 14 19 19 20 21 23 24 26 28 30 32 35 39 42 43 41 39 38 37 37 37 39
5 7 5 6 3 4 11 15 14 13 10 12 10 11 12 12 12 10 10 12 13 17 18 19 20 22 24 25 26 27 30 32 35 39 42 41 39 38 36 35 35 37 38 40
8 7 7 6 3 3 2 5 17 21 20 14 14 11 8 7 9 9 11 15 18 18 20 21 22 24 26 27 29 32 34 35 39 42 39 37 36 35 35 36 37 38 39 40
11 6 8 9 8 10 12 11 10 13 14 18 14 13 11 8 11 14 16 16 18 21 23 24 26 27 28 31 33 34 36 38 42 39 37 35 34 33 34 35 35 35 37 38
9 10 7 4 6 6 10 13 16 16 16 14 19 19 19 17 14 13 14 16 20 23 25 26 28 30 32 33 35 37 39 42 37 34 33 32 31 32 33 33 34 36 38 38
7 8 6 3 3 2 5 5 6 9 12 14 13 12 10 10 11 12 14 17 20 24 25 28 31 33 36 37 38 41 41 36 33 31 29 29 30 31 31 33 35 38 38 37
9 9 4 3 5 10 12 13 12 12 12 13 10 10 9 10 11 12 17 19 21 23 26 29 32 34 35 37 40 38 34 32 29 28 28 28 29 30 31 33 36 36 35 37
12 12 10 5 3 4 3 4 4 5 11 10 9 7 8 12 15 16 21 20 20 23 26 29 32 34 36 37 34 32 29 28 28 27 26 27 29 31 33 35 34 34 37 38
8 11 15 14 7 8 11 11 8 6 5 5 5 8 11 14 18 21 21 21 22 23 24 28 31 32 31 31 30 28 27 27 25 26 27 28 30 31 33 33 33 35 38 39
5 5 6 8 7 8 6 6 9 6 7 9 11 11 13 18 22 23 23 23 23 23 26 27 27 28 28 27 27 25 25 25 25 26 27 28 30 32 32 32 34 36 38 39
9 11 7 8 5 7 7 9 11 12 14 16 15 15 18 21 23 24 23 22 21 23 24 25 26 26 26 25 25 24 24 25 26 27 28 29 31 31 31 32 34 37 38 37
15 15 17 17 11 10 13 15 15 16 18 20 20 20 21 23 24 23 21 21 22 23 23 24 26 24 23 24 24 24 24 26 27 28 29 30 29 29 30 32 35 37 36 36
15 16 18 22 18 18 17 18 20 20 19 19 19 21 23 22 22 20 20 20 20 21 23 24 23 21 23 23 23 23 24 25 28 28 28 27 27 28 30 33 34 35 35 34
22 21 21 22 17 18 19 17 15 14 16 20 21 23 22 21 19 19 18 19 20 21 23 21 19 22 22 22 23 24 24 26 27 26 26 26 27 28 31 34 34 31 33 29

GFSCGP_700_spd_081.txt.gz
Wind_Speed
21 22 37 40 35 24 21 26 20 20 21 22 26 27 25 25 28 26 25 30 32 30 28 23 20 19 19 18 19 18 19 19 17 17 17 18 19 18 16 15 14 15 16 18
14 24 24 33 31 29 18 20 23 18 22 22 21 21 20 25 25 29 28 30 30 32 31 22 21 20 20 21 19 20 17 17 18 20 18 19 18 17 16 14 15 17 19 19
18 14 20 22 26 28 27 24 22 23 20 19 20 23 24 24 27 31 33 31 24 20 19 20 21 22 21 21 18 17 18 19 21 20 17 19 19 18 16 15 15 17 19 21
16 15 23 23 27 26 29 29 24 23 21 21 22 6 24 25 25 29 30 27 23 22 22 20 22 23 21 19 16 18 20 21 24 20 18 19 19 18 17 17 18 19 22 25
15 22 19 24 31 26 23 22 23 20 19 17 18 10 18 18 22 25 26 25 24 22 22 22 18 16 15 18 20 21 23 24 24 19 18 19 19 19 19 21 23 25 28 31
14 12 19 22 26 29 27 17 18 20 20 7 23 21 16 20 20 21 21 21 19 17 18 17 16 16 17 21 23 24 24 25 20 18 19 20 21 22 23 25 28 30 32 35
12 11 11 17 22 24 26 19 4 2 4 5 17 16 26 13 14 15 17 14 13 14 16 15 14 15 17 22 25 25 23 21 18 19 21 23 25 27 29 32 33 35 35 36
2 3 4 10 13 17 25 23 9 5 5 5 11 10 16 17 27 16 15 14 14 14 14 13 12 14 18 21 22 21 20 19 19 21 24 26 29 32 33 34 34 34 36 39
7 6 7 4 5 12 20 24 14 3 2 4 9 11 11 15 16 24 17 15 15 14 11 8 8 12 15 18 19 20 21 22 23 26 28 31 32 33 32 32 35 38 41 44
4 6 1 6 7 8 9 16 9 8 3 4 3 6 11 13 15 20 20 17 15 12 9 7 9 12 14 17 20 22 23 24 27 29 31 32 32 32 34 37 40 43 46 47
4 1 5 12 11 12 12 17 12 9 3 4 0 3 8 12 8 13 15 14 12 10 8 9 11 13 15 18 21 22 24 26 29 31 32 32 32 35 38 42 45 47 46 45
6 4 2 8 6 7 10 6 15 6 4 2 1 4 2 1 10 13 13 10 9 9 10 12 14 14 18 20 22 24 27 29 29 29 30 33 35 39 44 46 45 44 44 44
3 6 4 1 2 7 15 16 13 14 9 5 3 3 4 7 8 12 12 10 10 9 10 13 16 19 20 22 24 26 27 28 30 32 35 37 40 45 46 44 43 42 42 42
5 4 4 3 4 4 5 12 13 14 11 15 14 14 11 10 10 11 12 11 10 11 14 16 16 17 19 21 24 27 30 31 33 35 38 40 45 46 43 41 41 40 39 40
5 7 6 6 7 7 6 5 13 18 17 12 17 17 15 11 10 9 10 12 14 15 15 16 18 20 23 26 28 29 31 33 36 39 42 46 45 41 39 39 38 38 39 39
9 5 7 10 11 12 15 14 13 14 18 20 20 18 13 12 12 13 12 14 15 15 17 20 22 25 27 29 30 32 34 36 39 42 46 42 39 37 37 37 37 36 37 37
8 6 6 5 8 10 13 15 18 17 17 14 18 15 16 16 14 12 12 13 14 17 21 24 27 29 31 32 33 34 35 39 42 44 39 36 35 35 35 35 35 34 36 38
8 6 6 6 4 2 5 7 8 11 16 18 17 15 13 11 10 11 11 13 15 19 23 26 29 31 32 33 33 36 40 43 40 37 35 33 33 33 33 33 33 34 37 38
9 7 4 3 4 14 14 12 12 12 14 14 15 12 9 9 9 10 11 13 17 20 23 27 28 30 33 35 37 39 41 37 36 33 31 30 30 31 32 32 34 35 37 37
11 10 10 3 3 4 5 6 5 7 13 8 8 8 7 7 11 10 16 19 20 20 21 24 28 32 33 34 37 37 35 34 32 29 29 30 32 33 33 34 35 36 37 36
7 10 15 14 7 8 12 10 8 4 6 4 3 6 10 10 12 16 21 23 23 22 22 24 26 28 32 34 34 32 30 28 28 28 29 30 31 32 33 34 35 35 35 37
5 4 5 7 7 6 5 4 6 6 7 7 9 12 12 13 16 20 23 24 24 23 23 24 25 28 30 30 29 26 26 26 27 27 28 30 31 33 33 33 33 34 36 38
8 10 5 6 5 13 13 11 13 15 14 14 17 18 16 17 20 23 24 23 23 21 21 22 25 26 27 26 24 25 26 27 27 28 29 31 32 32 31 31 32 34 36 39
14 12 14 15 7 11 12 15 16 17 16 17 19 20 20 21 23 23 22 21 20 20 21 23 25 26 24 23 24 25 25 27 28 29 31 31 30 30 30 30 32 35 37 37
14 13 14 20 16 17 16 17 17 18 19 19 18 19 20 22 23 22 20 19 19 20 22 23 24 23 22 23 23 24 26 27 28 29 30 29 31 29 28 30 33 35 36 38
23 19 17 20 16 19 22 21 19 17 16 17 18 20 21 22 21 20 19 18 19 21 22 23 22 22 23 23 23 24 26 27 28 29 29 29 29 27 28 32 33 32 34 34

GFSCGP_700_spd_084.txt.gz
Wind_Speed
16 22 27 25 34 21 24 24 19 20 22 26 30 27 28 25 29 28 25 26 26 25 23 23 19 22 19 11 14 15 15 13 15 16 16 16 15 15 16 17 16 15 15 16
17 22 23 18 29 30 14 16 22 18 20 22 24 26 26 22 19 24 25 23 25 25 27 21 21 25 16 11 17 16 14 14 17 16 18 17 15 15 16 17 16 16 17 19
17 16 16 14 24 27 28 23 24 22 18 18 20 22 23 21 19 20 21 25 28 28 26 24 19 16 15 14 15 14 15 17 18 18 20 18 15 15 16 17 17 18 19 20
10 12 13 17 19 27 26 27 18 17 19 17 14 6 21 23 24 24 24 28 30 29 25 19 18 17 17 13 14 15 18 18 18 20 22 19 16 17 18 18 18 19 20 22
8 9 12 18 20 24 27 24 22 21 19 17 15 9 21 23 23 25 29 30 27 26 23 21 22 20 17 12 17 20 20 19 20 21 23 18 18 19 20 20 21 23 24 27
7 5 13 14 16 21 24 20 17 16 14 5 18 16 13 20 22 21 25 25 26 23 21 18 17 18 18 17 20 21 21 20 20 22 21 18 19 21 22 24 25 27 30 33
3 8 5 10 15 18 22 15 2 2 2 5 6 15 25 10 14 16 16 16 16 16 15 14 16 19 18 19 20 21 21 20 22 22 20 20 22 24 27 29 32 34 36 37
8 0 3 7 9 13 19 19 5 5 4 4 9 9 15 18 26 25 16 15 15 14 13 14 14 14 15 16 18 21 21 22 23 24 24 25 27 29 32 34 35 36 35 35
18 5 3 5 8 9 13 19 15 0 2 0 6 10 9 12 17 19 20 16 14 13 13 12 11 11 11 14 17 20 22 24 25 26 27 28 30 33 35 34 33 34 37 40
8 10 8 4 8 7 5 15 11 4 2 2 3 6 15 10 22 15 14 18 14 12 11 10 10 9 10 14 18 20 22 24 26 27 29 32 33 32 32 34 36 39 42 45
7 6 5 2 3 4 7 13 5 7 2 2 2 2 2 9 11 9 10 14 14 12 10 9 8 9 12 14 16 20 24 26 27 29 30 31 32 33 34 37 39 43 48 48
5 5 4 3 1 1 6 7 8 8 8 8 2 6 7 4 4 9 10 11 11 10 9 9 10 12 13 15 19 22 24 26 28 30 31 32 32 34 37 40 45 50 49 48
7 3 2 7 1 8 7 11 12 15 16 6 4 3 3 6 7 6 10 11 9 10 9 10 12 13 15 17 20 22 25 27 29 30 32 33 36 39 43 46 50 49 46 44
6 7 5 2 0 2 7 12 15 14 11 10 15 19 18 14 9 8 9 13 12 11 11 12 13 15 16 18 20 22 25 28 31 32 33 36 40 44 46 49 45 43 42 41
8 6 7 5 4 4 5 5 9 17 17 12 15 14 10 11 9 9 9 11 12 12 12 14 14 16 18 21 23 25 28 31 33 35 37 41 44 47 46 43 41 39 38 38
10 7 11 11 8 11 14 12 13 13 15 20 20 20 13 8 7 9 11 13 12 12 14 15 17 20 23 25 27 30 32 34 36 38 42 44 45 42 40 37 36 35 35 36
9 7 8 4 8 10 9 6 11 16 16 14 15 11 11 11 12 11 12 12 13 13 15 18 21 23 26 29 31 33 35 37 39 41 42 41 39 37 35 34 34 34 35 36
10 9 6 7 9 2 4 9 8 8 9 13 15 14 12 10 9 9 11 12 12 14 17 20 23 27 29 32 33 35 36 38 40 41 38 36 34 33 33 33 33 34 36 37
10 8 5 3 5 12 6 7 7 10 9 10 11 11 8 5 4 5 7 9 10 15 18 21 24 27 30 32 33 34 37 39 37 36 35 33 32 30 31 32 34 35 36 37
10 9 8 3 3 3 5 11 10 9 6 6 3 3 4 4 5 8 10 13 17 20 21 22 23 25 27 29 32 35 35 36 36 32 30 29 30 30 32 34 35 36 35 35
6 8 14 12 6 8 12 10 9 3 5 7 1 1 5 8 10 12 15 18 21 23 23 22 22 23 26 29 31 32 33 30 28 29 30 30 31 32 34 34 35 34 34 34
7 5 4 5 6 4 7 11 6 6 8 8 8 9 11 14 15 16 18 21 24 23 22 21 22 24 26 29 30 29 26 27 28 29 30 31 31 33 33 33 33 33 34 36
8 9 5 5 6 14 15 13 13 15 15 13 13 15 18 18 18 19 20 23 23 22 21 20 21 24 27 27 25 24 26 27 27 28 29 30 31 31 32 33 32 32 34 37
11 13 16 15 5 14 17 16 17 18 18 17 17 18 18 18 18 20 22 22 21 20 19 21 23 24 24 23 24 25 25 26 27 28 29 30 31 31 32 32 31 33 36 39
15 12 12 17 13 17 13 18 19 18 18 17 17 17 17 17 19 21 22 19 18 18 20 22 23 23 23 22 23 24 25 26 27 29 30 31 32 32 32 30 30 34 36 39
21 19 19 20 17 15 18 22 21 18 16 17 17 18 18 19 20 20 17 17 18 19 21 22 23 22 22 23 24 24 25 26 27 29 30 30 31 31 29 29 30 32 34 35

GFSCGP_700_spd_087.txt.gz
Wind_Speed
18 16 26 27 24 24 18 21 24 23 27 29 29 31 25 26 26 23 25 23 23 22 20 19 15 11 13 11 12 16 15 15 14 11 16 16 16 14 13 13 13 13 14 15
20 25 20 18 19 19 28 20 20 18 22 25 28 27 28 29 28 25 21 23 22 23 23 21 17 13 14 14 14 17 18 16 15 15 17 16 16 14 14 14 14 15 16 16
23 25 13 18 18 20 33 25 21 21 16 20 21 24 26 25 21 21 22 24 28 28 29 24 18 17 15 13 15 19 19 19 17 17 18 17 18 16 15 15 15 16 16 18
16 13 16 20 21 20 29 26 17 17 24 14 18 6 22 22 22 22 21 21 23 21 24 23 21 17 16 14 16 22 20 18 19 19 17 18 19 15 15 15 15 16 18 20
14 13 10 13 17 16 24 29 16 15 13 15 11 6 17 19 20 21 22 23 24 22 21 23 21 19 17 18 18 20 20 20 20 18 18 19 18 16 16 17 18 20 21 23
14 8 5 7 10 14 20 17 12 13 12 6 16 13 11 18 21 22 21 24 25 24 23 21 20 21 21 21 22 22 21 22 21 19 19 19 17 17 18 20 22 24 26 28
7 3 2 5 8 10 16 15 0 3 4 3 8 12 19 7 8 17 19 16 17 17 20 21 20 20 19 19 21 22 22 21 20 20 19 19 18 20 22 24 25 27 30 33
13 4 4 1 7 9 13 17 4 3 4 4 11 6 8 14 22 12 10 11 13 15 17 18 17 17 18 18 18 19 19 20 20 20 21 21 22 23 25 27 29 32 34 35
13 8 6 1 5 8 9 11 9 2 2 1 3 7 13 5 13 15 18 16 15 16 16 15 14 15 14 13 15 17 19 21 21 22 23 24 25 26 29 31 32 33 33 34
17 7 14 4 5 6 6 12 6 4 1 1 2 5 12 6 8 13 9 11 15 15 15 14 13 12 11 12 14 16 19 21 22 23 25 26 27 29 31 32 33 33 34 37
11 7 14 2 5 4 4 7 5 8 1 1 3 2 7 4 7 6 7 12 15 14 13 13 12 11 11 12 13 16 18 21 23 25 27 29 30 31 32 31 32 35 39 42
6 7 4 15 6 5 2 1 6 3 4 5 2 6 10 5 7 4 5 11 13 13 12 13 12 10 10 12 14 16 19 23 25 27 28 30 30 30 32 35 38 41 44 46
9 4 2 3 12 2 7 9 8 5 4 9 4 4 6 5 7 6 4 9 10 11 11 10 9 9 10 13 16 19 21 23 25 26 28 29 32 34 36 39 42 44 45 42
13 6 7 5 5 4 2 10 10 9 5 9 17 17 15 12 6 4 3 8 11 11 11 9 9 10 13 16 17 19 21 22 24 27 30 32 35 37 40 43 44 43 40 39
16 8 10 7 8 7 6 5 8 12 15 12 14 14 9 10 8 6 8 10 10 10 9 9 10 13 14 16 19 22 24 26 29 30 32 35 38 40 43 44 40 39 36 35
13 7 14 12 5 8 10 9 11 12 13 14 16 15 7 4 3 6 8 11 11 10 11 12 12 15 18 21 23 26 28 29 30 32 36 39 41 42 40 37 34 32 31 32
9 8 13 4 8 9 4 5 4 7 12 12 10 7 6 6 6 8 10 11 12 12 12 14 17 19 22 25 28 29 29 30 32 36 38 39 39 36 32 30 29 30 31 32
9 8 8 10 11 2 3 11 7 7 5 5 7 8 9 7 6 8 10 11 12 14 15 17 19 22 25 27 28 28 30 32 35 36 36 35 31 29 29 29 29 31 32 33
5 5 3 4 9 10 4 11 9 7 5 7 7 7 5 4 4 4 7 9 11 11 13 17 19 21 23 25 26 28 30 32 33 33 31 28 28 28 28 29 30 32 32 32
4 4 5 3 3 2 6 14 10 9 5 9 4 2 2 1 2 5 6 8 10 14 16 18 18 19 20 22 25 28 30 31 31 27 26 26 26 27 28 29 31 31 32 33
3 2 6 7 5 5 7 13 9 5 6 9 6 2 2 5 7 9 10 12 15 17 19 18 18 18 19 22 25 27 28 27 24 25 25 25 26 28 29 30 30 32 33 32
4 2 2 2 4 1 12 13 9 9 11 12 9 9 11 12 13 13 14 16 17 19 19 17 16 18 20 23 25 27 24 23 24 24 25 26 27 28 29 30 30 32 33 32
5 6 3 3 2 11 9 12 13 14 14 14 12 11 12 14 14 15 16 17 18 18 17 16 18 20 22 25 24 21 22 23 23 24 25 26 28 29 30 30 31 32 31 33
11 12 10 8 5 9 11 9 10 14 14 14 14 13 13 13 14 15 17 17 17 16 16 16 19 22 24 23 21 22 23 23 23 24 25 27 29 28 29 31 31 31 32 35
16 12 9 12 7 12 8 12 13 14 14 12 13 13 13 14 15 16 17 16 15 15 16 19 21 23 22 21 22 23 23 23 24 25 26 28 28 28 29 29 28 30 33 37
23 21 20 20 17 15 9 13 18 15 14 12 12 13 14 15 15 16 15 14 13 16 18 20 22 22 22 22 23 23 23 24 24 25 26 27 27 27 28 28 27 29 32 33

GFSCGP_700_spd_090.txt.gz
Wind_Speed
22 16 16 16 20 22 22 23 27 26 23 26 31 29 22 25 23 30 31 26 24 23 28 34 34 35 21 22 20 22 21 18 17 16 12 12 13 15 14 14 13 13 13 13
15 18 19 19 18 19 20 23 24 23 22 25 28 28 29 28 23 23 23 25 25 25 34 29 33 26 22 20 21 22 22 20 19 16 17 14 15 16 15 14 14 14 14 15
26 27 21 17 16 19 22 23 25 23 19 24 22 28 29 29 29 28 26 24 22 22 26 30 31 25 21 23 23 21 20 20 19 19 20 17 16 17 16 15 16 17 16 16
14 9 15 16 19 17 24 21 26 23 17 21 23 18 27 27 26 26 24 26 28 29 29 29 31 23 20 22 22 22 20 21 22 22 20 19 18 19 18 16 18 18 18 18
12 21 16 15 17 16 23 15 22 21 18 22 15 17 13 20 26 27 26 26 24 22 21 26 30 25 22 22 22 24 23 24 24 22 21 21 21 19 17 17 19 19 19 21
14 9 9 10 11 10 11 13 16 10 10 10 19 18 17 15 17 17 22 22 21 21 19 20 23 24 21 23 23 25 26 25 24 23 23 23 20 19 18 18 20 21 22 24
13 4 9 8 6 5 9 12 5 6 5 4 11 11 12 5 14 22 24 24 22 23 23 23 23 22 22 23 23 24 25 24 23 24 23 22 21 20 20 20 22 23 25 28
14 7 13 11 2 2 9 12 2 3 5 7 7 8 6 14 17 10 15 16 15 19 22 23 23 23 23 22 22 22 26 24 25 24 23 22 21 20 21 22 24 27 29 31
15 6 15 7 3 5 6 5 9 9 3 3 6 8 9 2 9 17 17 14 13 14 18 20 21 21 21 21 21 23 22 26 24 23 23 22 22 23 25 26 28 30 31 31
8 8 13 5 5 3 1 10 2 9 2 3 5 1 3 2 6 7 11 14 14 16 17 18 19 19 18 18 20 19 22 24 23 22 23 24 25 27 28 29 29 30 31 32
11 7 20 3 6 5 4 5 6 3 3 4 3 8 11 8 1 5 9 11 14 17 18 17 16 16 16 16 16 16 20 21 21 23 25 27 28 28 28 29 30 31 34 37
9 4 6 10 11 2 2 3 4 4 2 0 2 4 11 12 10 5 4 9 14 15 15 14 14 14 14 13 13 15 18 20 22 24 26 27 27 28 29 30 33 36 39 41
13 5 6 0 13 5 4 5 3 2 3 2 1 4 8 14 14 6 1 7 11 12 13 14 14 14 12 12 14 16 18 20 23 24 25 26 27 29 32 35 37 39 41 43
13 10 4 8 9 14 7 4 6 5 3 2 8 8 9 7 5 3 2 6 10 11 12 13 12 12 12 12 13 16 19 21 22 24 26 28 30 33 36 37 38 40 39 38
12 7 9 10 13 12 10 6 6 10 10 9 10 11 10 12 8 6 5 6 8 9 10 11 11 10 10 13 15 17 19 22 24 26 28 31 35 36 35 37 37 37 35 33
12 6 12 10 3 7 10 9 12 13 12 12 12 12 3 3 2 3 6 7 8 9 10 10 9 11 13 15 18 21 23 25 27 30 33 35 33 34 36 36 34 31 32 32
10 7 9 4 10 9 3 7 6 6 6 9 6 5 4 4 5 5 6 8 10 10 10 11 13 15 17 20 23 25 27 29 32 32 32 32 34 35 33 29 29 29 29 30
8 8 7 5 7 1 6 11 7 5 4 5 6 7 6 5 5 6 8 9 10 11 12 15 16 19 21 24 26 27 29 30 30 30 32 33 32 28 27 26 26 27 29 31
4 4 5 2 4 1 7 12 8 5 8 9 5 4 3 3 2 1 3 6 9 12 14 15 17 20 23 24 25 26 27 28 29 31 31 29 26 26 25 25 26 28 30 30
4 4 5 4 2 2 6 10 9 5 8 13 10 4 2 2 2 3 5 7 9 11 14 17 19 20 20 21 22 24 27 29 30 29 25 25 24 24 25 26 27 30 31 31
4 4 7 7 4 1 5 8 6 4 4 9 7 4 2 4 6 8 9 9 12 14 16 18 17 17 17 19 22 25 27 28 26 24 24 24 24 24 25 27 29 31 31 32
4 3 4 4 3 1 6 3 4 6 8 9 7 6 8 9 11 11 11 12 14 15 17 16 15 16 18 21 24 26 26 24 23 24 24 24 24 25 27 29 30 30 32 32
6 10 3 4 4 0 5 6 6 5 7 7 8 9 9 11 11 12 13 15 15 16 16 15 15 17 20 22 24 24 22 22 23 23 23 24 25 26 27 28 29 30 30 31
16 13 11 6 6 2 6 5 5 6 8 9 10 11 11 11 11 12 14 15 16 15 14 15 17 20 22 23 22 22 22 23 22 23 24 25 26 26 27 28 29 30 30 31
21 16 13 14 12 9 7 9 7 11 11 10 10 10 10 11 11 13 14 15 14 14 14 17 19 21 23 22 22 23 23 23 23 24 24 25 25 25 26 26 28 29 31 33
31 30 26 16 18 16 13 11 12 13 13 10 10 10 11 11 12 13 14 13 12 13 15 18 20 21 22 23 24 24 24 24 24 24 23 24 24 24 25 26 26 29 30 32

GFSCGP_700_spd_096.txt.gz
Wind_Speed
17 21 19 22 22 24 21 22 27 29 27 26 26 26 28 25 28 34 28 39 31 32 30 34 36 41 46 30 38 30 19 15 22 24 24 22 18 16 16 12 11 10 12 15
20 24 18 18 19 19 21 26 27 28 23 23 28 31 28 27 30 29 27 30 34 30 27 28 27 31 31 37 31 22 25 24 32 28 24 20 18 19 18 14 13 14 14 16
17 15 11 19 20 19 21 24 25 26 23 24 24 30 27 29 28 31 31 29 29 25 30 30 27 28 31 36 32 31 21 22 25 25 24 19 21 21 18 15 16 16 16 16
13 22 23 15 16 17 20 17 21 22 21 18 20 19 30 27 31 34 33 35 31 28 28 30 30 31 33 33 32 29 23 23 26 25 23 22 23 20 19 19 18 18 18 17
23 22 11 12 16 20 24 22 21 18 23 23 26 21 28 30 34 38 30 32 35 30 33 31 26 28 30 33 36 31 26 27 30 28 23 24 22 24 23 20 20 19 19 18
25 15 10 18 23 17 18 17 17 20 17 15 25 16 15 21 27 36 30 28 28 28 30 32 29 26 28 35 36 33 32 30 29 27 24 25 26 25 21 22 24 19 20 19
19 14 13 12 24 12 13 8 7 4 2 5 7 11 27 9 7 29 41 30 32 33 30 32 33 32 32 30 29 31 31 28 27 23 25 26 27 24 24 23 25 20 22 21
21 19 21 18 16 15 15 9 2 4 2 3 9 8 7 3 6 12 31 39 36 26 24 27 31 31 32 32 29 26 29 29 24 24 27 25 24 22 25 26 24 23 25 26
17 14 20 15 12 11 13 12 15 5 10 4 6 6 2 10 3 9 21 23 28 22 19 19 19 22 22 22 26 31 30 27 24 25 24 23 23 24 29 24 21 25 26 30
10 18 9 21 12 13 14 14 10 7 4 5 7 22 16 12 8 4 7 10 13 14 14 16 19 22 24 24 25 27 23 23 21 21 23 23 24 30 22 25 26 27 29 32
17 10 21 15 8 12 13 15 12 15 9 3 3 12 16 14 7 7 10 14 13 11 11 13 15 17 16 16 16 18 19 19 21 22 25 22 29 24 25 26 28 31 33 32
12 12 18 10 6 14 16 16 13 8 6 12 4 14 20 12 7 9 6 5 6 7 8 9 9 10 11 13 14 17 17 16 17 21 22 27 21 24 27 30 32 31 33 34
22 9 15 14 8 17 19 16 11 11 8 19 5 6 14 17 15 12 8 6 6 6 7 8 9 10 11 12 12 11 15 16 17 20 23 22 25 28 30 31 32 34 35 37
18 13 14 18 23 23 18 14 10 8 6 7 8 13 3 13 13 9 7 5 4 5 5 6 6 7 7 8 8 9 11 14 17 21 23 26 28 29 31 33 35 36 37 37
17 17 13 18 17 13 10 11 8 6 6 3 8 5 8 8 2 5 3 2 2 2 3 4 4 5 5 6 8 9 11 16 19 23 25 28 30 32 34 35 36 36 36 37
16 13 19 22 7 9 10 8 7 5 3 2 3 1 6 6 5 5 3 1 1 1 2 3 4 5 6 8 10 13 16 20 23 27 28 31 33 34 35 34 34 36 36 32
15 8 14 7 9 12 4 9 4 4 6 4 1 4 4 4 3 2 1 1 2 3 4 5 6 9 11 12 15 18 20 24 28 31 31 32 33 33 32 35 35 33 30 30
15 8 6 11 14 2 1 8 4 5 10 7 1 3 1 1 1 0 0 3 4 5 6 7 10 12 14 17 19 22 24 26 29 31 32 31 31 34 35 34 30 29 29 28
8 5 5 5 11 6 1 7 6 2 6 10 7 4 3 3 5 5 2 2 5 6 7 10 12 14 16 19 22 24 26 27 28 29 30 34 35 34 31 29 29 28 28 28
5 5 8 3 2 2 4 5 6 3 1 8 6 4 2 2 2 3 4 5 6 8 9 11 14 18 20 21 23 25 25 27 29 31 33 33 32 30 29 29 28 28 27 28
4 5 10 9 8 6 8 7 2 2 3 7 7 5 4 5 6 8 8 8 9 11 13 15 18 19 20 21 23 24 26 29 30 31 30 30 29 29 28 27 26 27 28 28
8 6 7 7 6 6 8 9 5 4 8 8 9 9 7 8 9 10 11 11 12 13 15 17 18 20 20 21 24 27 28 28 29 29 28 28 27 26 26 27 28 27 26 27
10 13 10 3 5 9 10 9 8 9 9 9 10 11 12 12 11 11 12 13 14 16 18 19 20 20 20 22 24 28 28 28 27 27 26 26 25 25 25 25 25 26 26 27
16 20 21 19 13 15 18 16 13 9 9 10 12 12 13 13 12 12 13 15 17 18 19 20 20 20 21 24 25 26 27 27 25 24 24 24 24 24 24 24 24 25 26 28
21 17 16 15 17 14 18 16 16 13 12 13 14 14 12 12 13 13 15 17 18 18 19 19 20 22 23 25 26 25 25 24 23 22 23 23 22 23 24 23 24 26 27 29
30 30 29 32 21 12 12 13 21 19 16 15 15 14 13 12 13 14 16 17 18 17 18 19 21 22 23 25 25 25 23 22 21 20 21 20 20 21 23 24 24 25 27 30

GFSCGP_700_spd_099.txt.gz
Wind_Speed
21 17 24 20 17 19 23 27 29 27 29 30 34 33 27 13 27 22 32 30 24 31 32 35 36 36 35 33 28 21 24 19 18 23 22 19 18 9 13 14 12 10 10 10
19 10 17 17 17 20 17 21 27 28 23 22 28 30 28 25 19 24 30 31 29 32 32 40 37 37 35 39 35 34 23 23 22 24 23 20 20 14 18 17 13 11 11 11
22 21 21 22 20 15 18 20 24 25 23 22 25 32 29 33 25 19 27 28 30 33 40 41 37 34 35 35 35 25 26 21 23 21 21 18 21 17 18 14 13 13 13 13
22 27 26 14 14 17 29 25 24 23 23 18 19 20 28 23 27 23 25 25 27 32 35 35 30 29 32 32 34 28 27 26 19 21 21 16 16 15 15 16 17 15 16 14
26 23 25 17 17 22 23 24 22 25 26 22 21 16 27 23 20 22 28 28 29 32 28 33 29 26 32 33 34 27 26 24 27 25 21 14 15 19 21 20 17 17 17 19
21 13 17 20 21 22 13 22 23 20 15 8 21 16 15 14 19 22 23 26 31 30 29 27 28 30 29 30 30 30 29 29 36 28 22 23 14 21 21 18 18 21 18 20
25 14 21 22 24 19 16 20 6 4 2 2 4 8 16 15 14 19 21 33 34 29 31 31 32 30 25 27 30 31 31 34 32 22 27 27 21 22 18 19 19 24 20 20
15 14 18 17 18 22 16 17 4 3 5 4 3 10 8 9 18 16 16 31 34 31 32 31 30 31 30 28 27 24 26 26 26 32 25 22 20 19 20 22 22 23 24 20
12 14 19 15 23 22 17 21 22 4 5 3 9 1 18 13 8 5 17 26 31 27 28 29 27 29 26 24 22 22 24 22 22 22 20 19 18 20 21 21 23 24 23 29
13 16 18 24 11 17 20 19 11 10 5 5 12 22 15 12 11 5 12 18 26 26 20 20 19 22 24 25 25 26 25 24 22 21 17 18 20 18 21 22 26 25 27 27
15 8 23 17 9 22 28 25 13 11 7 3 4 11 15 9 7 6 5 7 11 16 15 14 15 16 17 17 18 18 19 20 19 18 17 17 15 21 18 25 23 25 27 28
15 7 20 12 5 17 24 18 17 7 6 1 2 9 12 16 11 8 7 14 11 8 6 7 7 8 10 11 13 14 14 15 14 11 13 15 18 16 23 25 25 26 29 31
20 10 12 11 8 19 30 18 10 8 6 8 3 4 10 16 14 12 10 10 9 6 5 5 5 6 6 7 8 10 11 8 7 11 13 15 21 25 24 26 28 31 32 33
14 16 10 11 20 25 21 17 8 7 5 6 10 4 10 11 12 10 9 9 6 4 4 3 3 3 3 4 4 4 5 8 9 15 16 19 23 25 28 30 31 32 34 35
13 21 16 19 12 6 9 10 10 4 3 4 7 6 8 8 11 9 7 7 7 6 4 4 3 2 2 1 1 4 7 10 12 16 19 22 26 28 30 32 33 34 36 37
17 13 15 8 4 6 9 8 5 4 6 4 1 3 7 7 7 7 6 5 5 4 3 2 1 0 1 2 4 8 11 15 17 20 24 26 29 31 33 34 36 36 36 36
15 8 15 7 13 4 2 7 6 5 7 2 3 1 2 5 6 6 3 3 2 1 0 1 3 4 5 7 10 14 17 20 22 24 27 30 31 33 33 33 33 34 32 30
9 9 8 12 13 2 1 6 3 5 11 9 3 1 1 1 2 3 3 3 1 2 3 5 7 9 10 13 15 17 20 24 26 28 28 29 30 31 32 32 31 29 28 29
6 8 6 4 10 8 6 3 4 1 6 8 7 4 3 4 4 1 2 3 4 2 4 7 9 12 14 16 18 20 22 24 26 27 28 30 31 31 30 29 27 27 26 26
5 6 9 3 3 2 2 4 5 1 3 4 6 3 1 2 1 3 4 5 6 7 7 8 10 13 15 17 19 21 22 23 24 27 29 31 31 30 28 26 26 25 26 26
7 7 10 11 7 6 7 6 3 4 2 5 5 5 5 6 6 6 7 7 8 10 11 11 13 15 17 19 19 20 22 25 28 29 29 29 29 28 26 25 25 25 25 25
6 5 8 6 6 7 6 7 6 7 7 8 7 7 7 7 8 8 8 8 10 11 12 13 15 16 18 19 20 22 24 27 28 29 29 28 26 24 22 23 23 24 25 25
8 14 11 6 7 7 8 9 9 9 9 7 7 9 10 10 9 9 9 10 11 12 14 15 16 17 17 20 23 25 26 28 29 28 28 25 23 22 22 23 22 23 25 26
18 17 17 18 19 16 15 14 15 15 12 11 10 10 11 10 10 10 10 11 13 14 15 16 17 17 18 21 23 25 27 27 27 26 25 24 23 23 23 22 23 24 25 26
28 24 22 27 23 20 16 17 17 18 16 14 13 12 12 11 11 11 12 13 14 16 16 17 18 18 21 22 23 25 25 24 24 23 23 22 22 23 23 23 23 24 26 29
35 31 30 34 25 22 16 19 17 21 22 21 16 15 13 12 12 12 13 14 14 16 16 17 18 20 22 23 24 24 23 21 21 21 21 20 20 21 22 23 23 24 27 28

GFSCGP_700_spd_102.txt.gz
Wind_Speed
22 16 16 16 16 18 25 25 28 26 24 24 28 35 31 28 23 25 26 21 31 34 29 29 34 33 33 30 30 24 15 11 21 27 21 16 15 13 10 6 13 10 9 7
21 11 23 21 21 21 17 21 26 29 24 22 26 31 25 24 31 24 28 25 27 32 32 36 37 35 34 32 30 28 24 21 16 23 21 19 19 16 16 13 16 13 11 9
17 13 23 25 15 15 20 24 23 26 26 25 26 36 32 29 27 31 25 27 25 25 31 38 39 38 35 34 31 32 24 32 20 23 24 22 22 23 26 14 20 14 14 11
19 23 19 23 19 21 28 21 24 28 26 18 16 20 34 26 21 28 28 26 24 24 33 35 36 44 34 28 32 35 32 33 23 23 25 19 18 17 14 12 12 17 17 14
26 17 18 21 22 20 27 25 28 33 26 23 22 12 23 18 17 15 27 27 25 22 23 33 34 27 28 33 40 32 37 37 33 23 25 20 17 15 12 14 16 18 17 17
15 14 13 18 25 26 27 26 36 10 6 3 12 10 5 9 8 13 18 27 25 19 21 24 24 27 31 25 26 32 33 36 33 30 32 23 25 16 13 15 17 20 17 19
21 16 18 20 29 29 27 31 7 5 5 3 10 8 6 11 12 13 19 23 26 22 25 25 27 26 23 27 26 29 30 34 34 36 38 23 19 23 11 18 21 21 15 17
17 11 18 20 23 24 20 23 7 3 5 5 14 7 7 7 10 12 9 14 19 24 25 27 22 21 24 26 25 24 29 26 26 23 18 13 23 24 20 19 20 17 15 20
11 14 16 15 17 24 21 20 15 3 5 5 14 17 31 18 10 4 12 15 16 25 22 22 19 19 19 20 21 22 21 20 24 18 16 16 20 18 16 18 16 12 19 18
13 16 11 11 10 25 20 18 11 7 5 5 10 12 14 16 21 3 7 8 19 24 22 22 18 16 16 18 17 18 19 18 18 18 17 16 15 13 9 11 13 15 21 24
21 11 20 11 8 13 20 18 11 9 5 3 4 6 16 21 16 12 7 4 14 13 10 12 15 19 20 21 22 21 24 19 15 15 13 10 7 6 10 12 14 20 23 26
19 9 22 11 1 8 14 17 14 8 8 2 1 6 14 19 16 14 6 8 10 8 6 5 8 9 11 13 14 14 15 14 13 12 9 7 8 9 14 14 20 21 26 27
21 8 14 9 3 7 17 16 14 11 5 9 4 4 14 13 17 13 10 12 14 12 8 6 6 7 6 6 7 8 8 7 5 3 3 6 10 12 16 21 22 24 26 29
14 9 9 9 17 17 15 13 11 7 4 8 6 4 9 12 14 12 10 11 10 8 8 7 6 5 4 3 3 1 1 1 5 3 8 11 13 17 21 24 26 29 31 34
12 12 13 15 6 8 10 9 8 6 5 3 3 5 8 8 11 8 9 9 9 8 8 8 7 6 5 4 2 2 4 6 6 9 13 16 19 22 25 28 31 33 35 36
17 11 18 10 2 11 9 4 7 3 4 4 3 4 6 8 8 8 8 7 8 8 7 7 6 4 2 1 2 4 6 9 12 15 18 21 24 27 30 32 33 35 36 36
15 8 10 3 9 1 3 5 4 6 5 2 3 4 6 6 5 5 5 5 5 5 5 4 4 2 3 5 7 9 12 14 17 20 23 26 28 30 33 34 35 36 36 35
9 6 7 8 7 1 2 3 1 4 5 5 3 1 2 5 5 3 5 5 4 3 3 3 4 5 7 9 12 14 16 19 21 23 25 27 30 32 33 34 34 33 31 31
7 7 4 4 7 7 9 6 5 6 4 4 4 2 1 1 2 4 4 3 3 3 4 5 6 7 9 12 15 18 20 21 23 25 28 30 32 33 33 32 32 30 29 29
8 7 8 3 3 4 3 4 4 4 9 3 3 3 2 2 4 4 4 4 4 5 5 7 8 11 14 16 17 19 21 22 25 28 30 31 32 33 32 31 29 28 27 27
11 11 16 15 8 7 9 7 5 4 3 3 4 3 3 5 6 7 7 7 7 7 8 9 11 14 15 16 17 18 20 23 26 29 31 33 33 31 29 27 27 26 26 25
8 7 8 9 8 9 8 7 7 6 7 8 6 5 6 6 7 8 8 7 7 8 9 11 13 14 16 16 17 20 23 25 28 30 30 29 28 27 26 25 25 25 25 25
14 19 13 12 6 9 8 7 8 7 7 8 7 6 7 7 7 7 7 7 8 9 11 13 14 16 16 16 19 22 24 28 29 28 26 26 25 25 25 25 25 26 26 26
21 17 20 22 24 25 22 17 16 15 14 13 12 10 9 9 8 8 8 8 8 10 13 14 16 16 16 18 21 23 26 27 27 25 24 25 25 25 25 25 26 26 27 29
33 30 31 34 34 28 26 24 24 22 17 15 13 13 12 10 9 9 9 9 10 12 14 15 15 15 16 19 22 24 26 26 24 23 24 25 25 25 25 26 27 28 29 31
38 34 34 38 35 32 28 24 23 23 23 22 20 18 15 13 11 10 10 11 12 13 14 15 14 15 17 20 23 24 24 22 21 22 24 24 24 25 26 25 26 27 28 28